GEFSSGP_con_probscp_000.txt.gz
Probability
0 0 0 0 0 0 0 0 0 0 0 0 0 0 0 0 0 0 0 0 0 0 0 0 0 0 0 0 0 0 0 0 0 0 0 0 0 0 0 0 0 0 0 0 0 0 0 0 0
0 0 0 0 0 0 0 0 0 0 0 0 0 0 0 0 0 0 0 0 0 0 0 0 0 0 0 0 0 0 0 0 0 0 0 0 0 0 0 0 0 0 0 0 0 0 0 0 0
0 0 0 0 0 0 0 0 0 0 0 0 0 0 0 0 0 0 0 0 0 0 0 0 0 0 0 0 0 0 0 0 0 0 0 0 0 0 0 0 0 0 0 0 0 0 0 0 0
0 0 0 0 0 0 0 0 0 0 0 0 0 0 0 0 0 0 0 0 0 0 0 0 0 0 0 0 0 0 0 0 0 0 0 0 0 0 0 0 0 0 0 0 0 0 0 0 0
0 0 0 0 0 0 0 0 0 0 0 0 0 0 0 0 0 0 0 0 0 0 0 0 0 0 0 0 0 0 0 0 0 0 0 0 0 0 0 0 0 0 0 0 0 0 0 0 0
0 0 0 0 0 0 0 0 0 0 0 0 0 0 0 0 0 0 0 0 0 0 0 0 0 0 0 0 0 0 0 0 0 0 0 0 0 0 0 0 0 0 0 0 0 0 0 0 0
0 0 0 0 0 0 0 0 0 0 0 0 0 0 0 0 0 0 0 0 0 0 0 0 0 0 0 0 0 1 1 2 2 2 2 1 0 0 0 0 0 0 0 0 0 0 0 0 0
0 0 0 0 0 0 0 0 0 0 0 0 0 0 0 0 0 0 0 0 0 0 0 0 0 0 0 2 7 11 13 14 12 9 7 5 2 0 0 0 0 0 0 0 0 0 0 0 0
0 0 0 0 0 0 0 0 0 0 0 0 0 0 0 0 0 0 0 0 0 0 0 0 0 0 0 4 15 23 26 25 20 14 11 8 3 0 7 17 21 12 4 0 0 0 0 0 0
0 0 0 0 0 0 0 0 0 0 0 0 0 1 1 1 1 1 0 0 0 0 0 0 0 0 0 3 13 21 22 20 16 12 9 6 4 7 21 44 48 27 7 0 0 2 6 12 16
0 0 0 0 0 0 0 0 0 0 0 0 6 11 10 6 6 6 4 2 0 0 0 0 0 0 0 1 5 9 9 7 7 11 16 21 24 29 40 53 53 32 14 10 16 25 32 35 37
0 0 0 0 0 0 0 0 0 0 0 5 21 34 30 25 29 25 14 4 2 2 1 0 0 0 0 0 1 2 2 2 4 10 28 48 59 59 60 63 61 50 40 43 54 65 62 44 31
0 0 0 0 0 0 0 0 0 0 3 18 45 60 58 60 66 60 38 23 23 27 24 14 7 5 4 2 0 0 0 0 1 5 20 47 65 69 72 78 82 79 77 80 85 78 55 27 13
0 0 0 0 0 0 0 0 0 0 7 33 67 82 84 88 93 88 73 58 60 70 68 52 39 33 27 21 17 14 11 9 5 1 5 19 37 49 53 60 67 74 83 88 81 55 24 8 3
0 0 0 0 0 0 0 0 0 1 12 45 80 95 98 99 99 98 91 83 86 95 95 88 80 73 63 52 45 35 25 20 15 10 7 6 12 19 22 25 30 40 57 67 57 29 6 0 0
0 0 0 0 0 0 0 2 5 5 18 54 88 99 100 100 100 98 93 91 92 96 99 100 98 92 81 67 53 37 24 19 18 17 14 7 4 5 7 9 13 19 31 42 38 22 10 6 4
0 0 0 0 0 0 0 9 24 29 38 67 93 99 99 99 99 98 97 96 95 95 98 99 91 77 65 54 39 24 15 11 11 11 9 5 3 3 3 6 9 12 15 22 29 33 35 32 28
0 0 0 0 0 0 0 14 42 61 70 85 95 97 97 97 98 98 98 98 96 96 97 90 70 46 33 28 22 14 8 5 3 2 1 1 1 1 1 2 3 4 5 7 16 31 43 47 48
0 0 0 0 0 0 1 11 35 61 76 83 86 90 95 97 97 96 94 89 85 85 84 69 40 17 9 7 7 4 2 0 0 0 0 0 0 0 0 0 0 0 0 0 4 11 19 25 29
0 0 0 0 0 0 0 4 16 29 43 54 65 82 95 95 91 83 70 57 51 55 60 47 20 4 1 1 0 0 0 0 0 0 0 0 0 0 0 0 0 0 0 0 0 0 0 2 4
0 0 0 0 0 0 0 1 4 7 14 28 53 81 95 90 74 52 31 19 16 22 33 29 11 0 0 0 0 0 0 0 0 0 0 0 0 0 0 0 0 0 0 0 0 0 0 0 0
0 0 0 0 0 0 0 0 0 2 5 19 51 82 94 80 49 19 6 2 2 5 11 13 9 6 5 4 3 2 1 0 0 0 0 0 0 0 0 0 0 0 0 0 0 0 0 0 0
0 0 0 0 0 0 0 0 0 1 2 11 36 68 81 64 29 6 1 2 2 2 3 9 20 27 27 25 22 19 11 4 0 0 0 0 0 0 0 0 0 0 0 0 0 0 0 0 0
0 0 0 0 0 0 0 0 0 0 2 8 27 51 59 44 22 8 7 10 15 16 13 18 32 46 52 52 51 48 40 25 11 3 0 0 0 0 0 0 0 0 0 0 0 0 0 0 0
0 0 0 0 0 0 0 0 0 0 2 9 25 37 35 24 15 10 10 17 30 37 36 39 46 52 57 62 66 73 74 59 31 9 1 0 0 0 0 0 0 0 0 0 0 0 0 0 0
0 0 0 0 0 0 0 0 0 0 1 5 12 15 13 8 6 5 5 12 26 36 42 53 62 65 65 67 74 86 92 80 49 19 5 1 0 0 0 0 0 0 0 0 0 0 0 0 0
0 0 0 0 0 0 0 0 0 0 0 0 0 0 0 0 0 0 0 3 8 14 19 32 50 62 66 68 76 90 97 89 68 40 17 3 0 0 0 0 0 0 0 0 0 0 0 0 0
0 0 0 0 0 0 0 0 1 0 0 0 0 0 0 0 0 0 0 0 0 0 1 7 17 27 34 40 52 68 80 86 84 64 31 8 0 0 0 0 0 0 0 0 0 0 0 0 0
0 0 0 0 0 0 0 0 0 0 0 0 0 0 0 0 0 0 0 0 0 0 0 0 1 3 5 9 16 26 40 56 70 66 43 16 3 0 0 0 0 0 0 0 0 0 0 0 0
0 0 0 0 0 0 0 0 0 0 0 0 0 0 0 0 0 0 0 0 0 0 0 0 0 0 0 0 0 3 10 24 42 55 47 23 6 1 0 0 0 0 0 0 0 0 0 0 0

GEFSSGP_con_probscp_006.txt.gz
Probability
0 0 0 0 1 2 1 0 0 0 0 0 0 0 0 0 0 0 0 0 0 0 0 0 0 0 0 0 0 0 0 0 0 0 0 0 0 0 0 0 0 0 0 0 0 0 0 0 0
0 0 0 0 0 1 0 0 0 0 0 0 0 0 0 0 0 0 0 0 0 0 0 0 0 0 0 0 0 0 0 0 0 0 0 0 0 0 0 0 0 0 0 0 0 0 0 0 0
0 0 0 0 0 0 0 0 0 0 0 0 0 0 0 0 0 0 0 0 0 0 0 0 0 0 0 0 0 0 0 0 0 0 0 0 0 0 0 0 0 0 0 0 0 0 0 0 0
0 0 0 0 0 0 0 0 0 0 0 0 0 0 0 0 0 0 0 0 0 0 0 0 0 0 0 0 0 0 0 0 0 0 0 0 0 0 0 0 0 0 0 0 0 0 0 0 0
0 0 0 0 0 0 0 0 0 0 0 0 0 0 0 0 0 0 0 0 0 0 0 0 0 0 0 0 0 0 0 0 0 0 0 0 0 0 0 0 0 0 0 0 0 0 0 0 0
0 0 0 0 0 0 0 0 0 0 0 0 0 0 0 0 0 0 0 0 0 0 0 0 0 0 0 1 1 0 0 0 0 0 0 0 0 0 0 0 0 0 0 0 0 0 0 0 0
0 0 0 0 0 0 0 0 0 0 0 0 0 0 0 0 0 0 0 0 1 3 3 1 0 1 2 2 1 0 0 0 0 0 0 0 0 0 0 0 0 0 0 0 0 0 0 1 1
0 0 0 0 0 0 0 0 0 0 0 0 0 1 1 0 0 0 0 0 3 11 13 7 8 14 11 10 17 21 19 12 6 2 0 0 0 0 1 2 2 1 0 0 0 1 2 3 4
0 0 0 0 0 0 0 0 0 0 1 6 14 15 7 1 0 0 0 0 3 16 26 24 34 43 28 26 51 64 58 45 27 15 14 12 4 1 7 15 18 13 10 13 20 22 19 15 11
0 0 0 0 0 0 0 0 0 0 4 22 46 48 27 16 16 17 15 11 7 14 26 41 65 68 40 40 75 90 83 78 57 40 46 47 32 20 23 41 51 42 37 47 62 63 54 42 33
0 0 0 0 0 0 0 0 0 0 8 37 70 73 55 48 50 51 45 35 28 22 20 37 68 76 56 57 85 94 89 92 81 67 77 84 76 62 53 68 81 75 73 81 90 91 84 73 69
0 0 0 0 0 0 0 0 0 0 8 37 70 78 73 72 71 69 63 60 64 53 34 39 65 81 79 82 94 97 95 95 91 88 93 98 98 89 81 85 94 94 93 92 91 94 93 87 85
0 0 0 0 0 0 0 0 0 0 5 26 55 71 75 75 66 61 66 81 90 84 69 68 81 91 94 96 99 100 99 95 91 94 98 97 96 88 79 82 89 91 90 87 83 80 76 70 64
0 0 0 0 0 0 0 0 0 0 3 16 39 57 69 70 60 60 77 93 99 97 94 94 97 99 99 99 100 100 100 95 91 94 97 96 94 84 73 70 74 77 78 78 72 58 48 40 33
0 0 0 0 0 0 0 0 0 0 2 10 24 43 61 67 64 75 92 99 100 100 100 100 100 100 100 100 100 99 99 98 97 96 92 88 84 79 75 70 62 60 65 66 56 42 31 23 17
0 0 0 0 0 0 0 0 0 0 1 4 12 31 60 75 79 89 99 100 100 100 100 100 100 100 100 100 98 96 96 98 96 92 85 74 62 57 64 68 56 44 46 49 39 29 23 15 9
0 0 0 0 0 0 0 0 0 0 0 1 5 29 66 89 93 96 100 99 98 99 100 100 100 99 99 97 91 87 87 85 78 77 77 59 32 25 37 46 39 26 25 27 21 16 13 7 3
0 0 0 0 0 0 0 0 0 0 0 0 8 36 76 97 99 99 98 97 97 98 99 99 98 97 97 94 83 75 72 60 48 54 57 34 11 7 13 17 15 10 8 9 9 7 6 2 1
0 0 0 0 0 0 0 0 0 1 2 3 15 49 83 98 99 97 92 91 94 97 97 96 95 92 91 88 81 73 63 40 23 28 29 14 2 1 2 3 2 1 0 1 2 2 2 1 0
0 0 0 0 0 0 0 0 1 3 6 11 29 61 86 95 92 83 74 74 84 91 89 88 90 86 80 82 76 67 51 26 11 20 31 26 16 9 5 3 1 0 0 0 0 0 0 0 0
0 0 0 0 0 0 0 0 1 5 15 29 46 65 76 74 65 53 47 55 72 83 81 80 86 81 76 72 64 56 43 23 19 37 56 59 45 25 11 5 3 1 0 0 0 0 0 0 0
0 0 0 0 0 0 0 0 3 14 33 50 57 56 53 44 32 27 35 50 67 76 77 79 83 83 81 72 64 67 60 44 48 65 79 80 64 39 22 12 8 4 1 0 0 0 0 0 0
0 0 0 0 0 0 0 0 7 28 54 63 52 39 31 23 17 20 33 48 59 65 70 72 74 78 83 82 82 88 86 78 80 88 93 88 74 58 44 35 25 12 4 1 0 0 0 0 0
0 0 0 0 0 0 0 0 8 32 57 58 38 21 16 13 12 16 24 32 38 42 46 51 55 61 70 77 84 91 94 94 96 98 98 94 89 81 71 61 46 24 6 1 0 0 0 0 0
0 0 0 0 0 0 0 3 10 23 34 34 20 8 5 5 6 8 11 14 16 17 20 27 34 39 41 47 56 67 78 87 92 95 96 97 97 94 86 73 55 29 7 1 0 0 0 0 0
0 0 0 0 0 0 2 11 19 15 10 9 6 2 1 2 2 3 4 5 5 4 5 10 17 20 19 21 27 36 45 57 69 79 87 93 96 98 91 78 58 33 11 3 0 0 0 0 0
0 0 0 0 0 0 5 21 27 13 1 0 0 0 0 0 0 0 1 1 1 0 0 2 6 9 10 10 12 15 17 23 35 48 63 74 82 90 93 88 72 50 27 12 4 1 0 1 1
0 0 0 0 0 0 4 21 34 24 8 1 0 0 0 0 0 0 0 0 0 0 0 0 2 4 6 5 5 5 4 5 11 19 30 42 53 67 81 89 88 74 52 30 12 3 0 0 0
0 0 0 0 0 0 1 14 32 30 13 2 0 0 0 0 0 0 0 0 0 0 0 0 0 1 2 1 0 0 0 0 2 4 8 14 23 36 55 75 88 88 73 49 25 7 0 0 0
0 0 0 0 0 0 1 10 21 21 10 2 0 0 0 0 0 0 0 0 0 0 0 0 0 0 0 0 0 0 0 0 0 0 1 3 7 16 34 60 81 89 82 62 34 11 1 0 0

GEFSSGP_con_probscp_012.txt.gz
Probability
0 0 0 0 0 0 0 0 0 0 0 0 0 0 0 0 0 0 0 0 0 0 0 0 0 0 0 0 0 0 0 0 0 0 0 0 0 0 0 0 0 0 0 0 0 0 0 0 0
0 0 0 0 0 0 0 0 0 0 0 0 0 0 0 0 0 0 0 0 0 0 0 0 0 0 0 0 0 0 0 0 0 0 0 0 0 0 0 0 0 0 0 0 0 0 0 0 0
0 0 0 0 0 0 0 0 0 0 0 0 0 0 0 0 0 0 0 0 0 0 0 1 2 1 0 0 0 0 0 0 0 0 0 0 0 0 0 0 0 0 0 0 0 0 0 0 0
0 0 0 0 0 0 0 0 0 0 0 0 0 0 0 0 0 0 0 0 0 0 0 2 4 3 1 0 0 0 0 0 0 0 0 0 0 0 0 0 0 0 0 0 0 0 0 0 0
0 0 0 0 0 0 0 0 0 0 0 0 0 0 0 0 0 0 0 0 0 0 0 2 4 3 1 0 0 0 0 0 0 0 0 0 0 0 0 0 0 0 0 0 0 0 0 0 0
0 0 0 0 0 0 0 0 0 0 0 0 0 0 0 0 0 0 0 0 0 0 0 1 2 2 1 1 0 0 0 0 0 0 0 0 0 0 0 0 0 0 0 0 0 0 0 0 0
0 0 0 0 0 0 0 0 0 0 0 0 0 0 0 0 0 0 0 0 0 0 0 0 1 1 2 2 3 2 1 0 0 0 0 0 0 0 0 0 0 0 0 0 0 0 0 0 0
0 0 0 0 0 0 0 0 0 0 0 1 1 1 0 0 0 0 1 1 1 0 0 1 2 3 3 4 7 7 5 3 1 0 0 0 0 0 0 0 0 0 0 0 0 0 0 0 0
0 0 0 0 0 0 0 0 0 0 2 4 5 3 2 2 3 5 11 18 14 5 1 1 5 9 8 7 9 9 7 5 2 0 0 0 0 0 0 0 0 0 0 0 0 0 1 1 1
0 0 0 0 0 0 0 0 0 2 5 8 10 9 8 9 10 13 28 49 49 29 11 4 6 12 13 9 6 5 4 3 1 0 0 0 0 0 0 0 0 0 0 0 0 1 3 4 5
0 0 0 0 0 0 0 0 0 2 7 13 17 18 18 18 18 22 41 70 82 66 38 15 7 10 12 9 5 3 1 0 0 0 0 0 0 0 0 0 0 0 0 0 1 4 7 9 9
0 0 0 0 0 0 0 0 0 1 7 19 29 31 28 25 23 27 44 71 91 90 66 34 15 11 9 7 7 5 2 0 0 0 0 1 1 0 0 0 0 0 0 0 1 4 8 8 7
0 0 0 0 0 0 0 0 0 3 15 37 52 48 38 32 30 34 49 70 88 91 77 52 33 22 14 11 14 14 8 4 2 2 5 7 5 1 0 0 0 0 0 0 0 2 3 3 3
0 0 0 0 0 0 0 0 1 8 31 61 73 64 50 45 45 49 60 73 80 81 74 62 50 43 37 35 38 38 31 24 18 14 15 16 9 2 0 0 0 0 0 0 0 0 0 0 1
0 0 0 0 0 0 0 0 1 10 37 67 79 71 60 55 54 55 60 64 64 63 63 59 57 59 64 66 66 64 60 52 41 30 23 17 8 1 0 0 0 0 0 0 0 0 0 0 0
0 0 0 0 0 0 0 0 0 8 30 58 73 71 62 55 48 42 40 39 38 38 39 42 47 57 66 69 68 67 65 58 46 32 19 10 3 0 0 0 0 0 0 0 0 0 0 0 0
0 0 0 0 0 0 0 1 3 10 29 52 65 64 56 46 34 25 20 18 17 15 16 21 28 37 44 45 45 46 45 38 30 20 10 4 1 0 0 0 0 0 0 0 0 0 0 0 0
0 0 0 0 0 0 0 2 6 16 32 47 51 46 40 32 22 14 10 8 7 6 6 8 12 17 21 22 22 22 19 15 11 8 4 1 0 0 0 0 0 0 0 0 0 0 0 0 0
0 0 0 0 0 0 0 2 6 14 24 33 33 27 22 17 11 6 4 4 3 4 4 3 4 6 7 8 8 6 4 2 2 2 1 0 0 0 0 0 0 0 0 0 0 0 0 0 0
0 0 0 0 0 0 0 1 3 6 10 17 20 16 10 6 3 1 1 1 2 2 2 1 1 1 1 2 1 1 1 0 0 0 0 0 0 0 0 0 0 0 0 0 0 0 0 0 0
0 0 0 0 0 0 0 0 1 1 3 8 12 9 4 1 0 0 0 0 1 1 0 0 0 0 0 0 1 1 0 0 0 0 0 0 0 0 0 0 0 0 0 0 0 0 0 0 0
0 0 0 0 0 0 0 0 1 1 2 5 5 3 1 0 0 0 0 0 0 0 0 0 0 0 0 0 1 1 0 0 0 0 0 0 0 0 0 0 0 0 0 0 0 0 0 0 0
0 0 0 0 0 0 0 0 0 1 2 3 1 1 0 0 0 0 0 0 0 0 0 0 0 0 0 0 1 1 0 0 1 0 0 0 0 0 0 0 0 0 0 0 0 0 0 0 0
0 0 0 0 0 0 0 0 0 0 1 1 0 0 0 0 0 0 0 0 0 0 0 0 0 0 0 0 0 0 0 0 0 0 0 0 0 0 0 0 0 0 0 0 0 0 0 0 0
0 0 0 0 0 0 0 0 0 0 0 0 0 0 0 0 0 0 0 0 0 0 0 0 0 0 0 0 0 0 0 0 0 0 0 0 0 0 0 0 0 0 0 0 0 0 0 0 0
0 0 0 0 0 0 0 0 0 0 0 0 0 0 0 0 0 0 0 0 0 0 0 0 0 0 0 0 0 0 0 0 0 0 0 0 0 0 0 0 0 0 0 0 0 0 0 0 0
0 0 0 0 0 0 0 0 0 0 0 0 0 0 0 0 0 0 0 0 0 0 0 0 0 0 0 0 0 0 0 0 0 0 0 0 0 0 0 0 0 0 0 0 0 0 0 0 0
0 0 0 0 0 0 0 0 0 0 0 0 0 0 0 0 0 0 0 0 0 0 0 0 0 0 0 0 0 0 0 0 0 0 0 0 0 0 0 0 0 0 0 0 0 0 0 0 0
0 0 0 0 0 0 0 0 0 0 0 0 0 0 0 0 0 0 0 0 0 0 0 0 0 0 0 0 0 0 0 0 0 0 0 0 0 0 0 0 0 0 0 0 0 0 0 0 0
0 0 0 0 0 0 0 0 0 0 0 0 0 0 0 0 0 0 0 0 0 0 0 0 0 0 0 0 0 0 0 0 0 0 0 0 0 0 0 0 0 0 0 0 0 0 0 0 0

GEFSSGP_con_probscp_018.txt.gz
Probability
0 0 0 0 0 0 0 0 0 0 0 0 0 0 0 0 0 0 0 0 0 0 0 0 0 0 0 0 0 0 0 0 0 0 0 0 0 0 0 0 0 0 0 0 0 0 0 0 0
0 0 0 0 0 0 0 0 0 0 0 0 0 0 0 0 0 0 0 0 0 0 0 1 3 3 1 1 0 0 0 0 0 0 0 0 0 0 0 0 0 0 0 0 0 0 0 0 0
0 0 0 0 0 0 0 0 0 0 0 0 0 0 0 0 0 0 0 0 0 0 0 6 12 11 5 2 0 0 0 0 0 0 0 0 0 0 0 0 0 0 0 0 0 0 0 0 0
0 0 0 0 0 0 0 0 0 0 0 0 0 0 0 0 0 0 0 0 0 0 0 10 23 21 9 3 0 0 0 0 0 0 0 0 0 0 0 0 0 0 0 0 0 0 0 0 0
0 0 0 0 0 0 0 0 0 0 0 0 0 0 0 0 0 0 0 0 0 0 0 13 30 29 15 6 2 1 0 0 0 0 0 0 0 0 0 0 0 0 0 0 0 0 0 0 0
0 0 0 0 0 0 0 0 0 0 0 0 0 0 0 0 0 0 0 0 1 1 2 15 34 37 28 19 10 6 5 3 2 1 0 0 0 0 0 0 0 0 0 0 0 0 0 0 0
0 0 0 0 0 0 0 0 0 0 0 0 0 0 0 0 0 0 0 1 3 6 11 25 39 44 41 35 26 21 17 13 8 4 2 1 1 0 0 0 0 0 0 0 0 0 0 0 0
0 0 0 0 0 0 0 0 0 0 0 0 0 0 0 2 3 2 1 4 9 15 25 39 46 48 48 44 39 36 33 27 19 11 6 3 2 1 0 0 0 0 0 0 0 0 0 0 0
0 0 0 0 0 0 0 0 0 0 0 0 0 1 5 12 16 15 11 12 16 23 34 45 51 54 55 52 47 45 43 39 34 27 20 14 7 2 1 1 0 0 0 0 0 0 0 0 0
0 0 0 0 0 0 0 0 0 0 0 0 1 6 19 36 43 42 38 32 28 32 41 47 50 54 58 56 53 52 53 53 54 52 46 37 22 10 7 5 2 1 0 0 0 0 1 1 1
0 0 0 0 0 0 0 0 0 0 0 1 5 17 41 62 68 68 65 58 48 43 45 46 44 47 50 51 50 54 61 67 69 72 72 63 45 29 21 15 7 3 2 2 1 1 2 2 2
0 0 0 0 0 0 0 0 0 1 3 7 14 31 55 72 77 75 72 67 57 46 39 36 36 35 38 42 43 47 57 65 69 76 81 75 59 42 30 20 11 6 4 3 3 3 3 2 2
0 0 0 0 0 0 0 1 2 5 11 17 27 44 60 68 70 65 59 53 46 37 31 28 26 24 27 34 38 41 47 52 56 61 65 61 48 34 24 16 8 4 3 2 3 3 2 1 1
0 0 0 0 0 0 1 5 10 15 19 26 36 47 55 58 55 47 37 30 26 24 22 20 17 15 18 25 31 36 40 41 40 38 37 32 25 18 12 8 4 2 1 1 1 1 1 0 0
0 0 0 0 0 0 3 9 17 22 24 29 34 38 40 39 36 28 18 12 11 11 11 10 9 10 13 17 21 25 30 30 28 23 19 16 12 9 5 3 1 0 0 0 0 0 0 0 0
0 0 0 0 0 0 3 8 14 16 18 21 23 22 22 21 19 14 7 3 2 2 3 3 4 5 7 10 13 15 18 21 20 18 16 12 8 5 3 1 0 0 0 0 0 0 0 0 0
0 0 0 0 0 0 1 3 5 5 7 8 9 9 9 9 9 6 4 2 0 0 0 0 1 1 2 5 9 10 11 13 14 14 13 10 7 4 2 1 0 0 0 0 0 0 0 0 0
0 0 0 0 0 0 0 1 1 1 0 1 2 2 3 3 3 2 1 1 0 0 0 0 0 0 0 2 6 7 7 6 7 8 9 8 6 3 1 1 0 0 0 0 0 0 0 0 0
0 0 0 0 0 0 0 0 0 0 0 0 0 0 0 0 0 0 0 0 0 0 0 0 0 0 0 1 2 3 3 2 2 3 4 5 4 2 1 0 0 0 0 0 0 0 0 0 0
0 0 0 0 0 0 0 0 0 0 0 0 0 0 0 0 0 1 0 0 0 0 0 0 0 0 0 0 0 0 0 0 0 1 1 2 2 1 1 0 0 0 0 0 0 0 0 0 0
0 0 0 0 0 0 0 0 0 0 0 0 0 0 0 0 0 0 0 0 0 0 0 0 0 0 0 0 0 0 0 0 0 0 0 0 0 0 0 0 0 0 0 0 0 0 0 0 0
0 0 0 0 0 0 0 0 0 0 0 0 0 0 0 0 0 0 0 0 0 0 0 0 0 0 0 0 0 0 0 0 0 0 0 0 0 0 0 0 0 0 0 0 0 0 0 0 0
0 0 0 0 0 0 0 0 0 0 0 0 0 0 0 0 0 0 0 0 0 0 0 0 0 0 0 0 0 0 0 0 0 0 0 0 0 0 0 0 0 0 0 0 0 0 0 0 0
0 0 0 0 0 0 0 0 0 0 0 0 0 0 0 0 0 0 0 0 0 0 0 0 0 0 0 0 0 0 0 0 0 0 0 0 0 0 0 0 0 0 0 0 0 0 0 0 0
0 0 0 0 0 0 0 0 0 0 0 0 0 0 0 0 0 0 0 0 0 0 0 0 0 0 0 0 0 0 0 0 0 0 0 0 0 0 0 0 0 0 0 0 0 0 0 0 0
0 0 0 0 0 0 0 0 0 0 0 0 0 0 0 0 0 0 0 0 0 0 0 0 0 0 0 0 0 0 0 0 0 0 0 0 0 0 0 0 0 0 0 0 0 0 0 0 0
0 0 0 0 0 0 0 0 0 0 0 0 0 0 0 0 0 0 0 0 0 0 0 0 0 0 0 0 0 0 0 0 0 0 0 0 0 0 0 0 0 0 0 0 0 0 0 0 0
0 0 0 0 0 0 0 0 0 0 0 0 0 0 0 0 0 0 0 0 0 0 0 0 0 0 0 0 0 0 0 0 0 0 0 0 0 0 0 0 0 0 0 0 0 0 0 0 0
0 0 0 0 0 0 0 0 0 0 0 0 0 0 0 0 0 0 0 0 0 0 0 0 0 0 0 0 0 0 0 0 0 0 0 0 0 0 0 0 0 0 0 0 0 0 0 0 0
0 0 0 0 0 0 0 0 0 0 0 0 0 0 0 0 0 0 0 0 0 0 0 0 0 0 0 0 0 0 0 0 0 0 0 0 0 0 0 0 0 0 0 0 0 0 0 0 0

GEFSSGP_con_probscp_024.txt.gz
Probability
0 0 0 0 0 0 0 0 0 0 0 0 0 0 0 0 0 0 0 0 0 2 4 2 0 0 0 0 0 0 0 0 0 0 0 0 0 0 0 0 0 0 0 0 0 0 0 0 0
0 0 0 0 0 0 0 0 0 0 0 0 0 0 0 0 0 0 0 0 0 1 2 1 0 0 0 0 0 0 0 0 0 0 0 0 0 0 0 0 0 0 0 0 0 0 0 0 0
0 0 0 0 0 0 0 0 0 0 0 0 0 0 0 0 0 0 0 0 0 0 0 0 0 0 0 0 0 0 0 0 0 0 0 0 0 0 0 0 0 0 0 0 0 0 0 0 0
0 0 0 0 0 0 0 0 0 0 0 0 0 0 0 0 0 0 0 0 0 0 0 0 0 0 0 0 0 0 0 0 0 0 0 0 0 0 0 0 0 0 0 0 0 0 0 0 0
0 0 0 0 0 0 0 0 0 0 0 0 0 0 0 0 0 0 0 0 0 0 0 0 0 0 0 0 0 0 0 0 0 0 0 0 0 0 1 1 0 0 0 0 0 0 0 0 0
0 0 0 0 0 0 0 0 0 0 0 0 0 0 0 0 0 0 0 0 0 0 0 0 0 0 1 1 0 0 1 1 1 0 0 0 0 1 2 2 1 1 0 0 0 0 0 0 0
0 0 0 0 0 0 0 0 0 0 0 0 0 0 1 5 9 12 12 7 3 1 0 0 1 2 4 6 7 7 6 6 5 4 3 2 2 3 4 4 3 2 1 1 0 0 0 0 0
0 0 0 0 0 0 0 0 0 0 0 0 0 1 8 24 38 44 42 32 21 12 7 5 6 7 8 14 20 21 19 18 18 17 14 9 6 5 6 8 9 6 3 2 1 1 0 0 0
0 0 0 0 0 0 0 0 0 0 0 0 2 3 14 40 62 71 70 64 53 37 27 24 24 21 19 24 34 39 39 41 42 41 39 31 21 13 15 25 33 24 11 5 4 3 1 0 0
0 0 0 0 0 0 0 0 0 0 2 6 9 7 13 32 54 69 76 77 70 56 47 45 44 41 36 39 49 57 61 65 67 69 71 66 54 42 41 58 67 52 26 11 7 6 4 1 1
0 0 0 0 0 0 0 0 1 3 9 18 21 14 12 21 38 57 70 72 66 55 49 48 50 51 49 52 61 68 71 76 79 81 87 89 85 78 77 85 89 75 51 32 26 22 15 8 7
0 0 0 0 0 1 1 0 3 9 17 29 37 33 30 35 48 64 72 68 60 52 44 41 43 45 45 50 57 60 64 69 73 76 83 89 94 96 96 96 95 88 76 63 56 48 35 26 23
0 0 0 0 0 1 1 0 3 10 20 34 49 56 59 63 70 76 77 68 60 56 48 39 35 32 32 38 42 43 47 53 59 65 70 79 89 95 97 97 95 91 86 81 74 62 52 45 40
0 0 0 0 0 1 1 0 2 7 17 31 45 57 64 67 69 71 69 63 58 56 48 35 26 22 23 27 29 29 30 34 41 47 54 63 75 85 91 93 91 87 82 77 69 59 52 47 43
0 0 0 0 0 0 0 0 1 3 9 18 25 31 36 40 43 44 44 43 40 39 34 23 15 14 16 17 18 17 16 19 24 30 36 44 55 68 78 83 83 80 75 67 57 48 41 34 30
0 0 0 0 0 0 0 0 0 1 3 5 7 9 11 14 17 19 20 21 22 22 20 14 8 7 8 9 10 9 8 10 14 17 21 26 36 50 62 70 73 71 66 56 45 36 29 23 18
0 0 0 0 0 0 0 0 0 0 0 0 0 1 2 5 8 9 11 16 20 19 15 11 6 5 5 4 4 4 4 5 8 8 10 15 23 33 45 54 57 58 55 46 35 30 26 20 15
0 0 0 0 0 0 0 0 0 0 0 0 0 0 1 4 7 8 10 14 18 17 12 8 5 4 4 2 2 2 2 3 3 3 3 7 12 19 29 37 41 44 46 39 29 24 22 16 12
0 0 0 0 0 0 0 0 0 0 0 0 0 0 1 2 4 5 6 7 8 7 5 4 3 3 3 2 2 2 3 3 3 2 1 2 5 10 17 25 30 35 37 31 21 16 12 9 7
0 0 0 0 0 0 0 0 0 0 0 0 0 0 1 1 1 1 2 2 2 1 1 1 2 2 2 2 3 3 4 4 3 2 1 0 1 4 10 18 23 25 26 22 16 11 7 3 2
0 0 0 0 0 0 0 0 0 0 0 0 0 0 0 0 0 0 1 1 1 0 0 0 0 0 0 1 1 2 2 3 2 2 1 0 0 1 5 10 14 15 16 15 12 9 5 2 1
0 0 0 0 0 0 0 0 0 0 0 0 0 0 0 0 0 0 0 0 0 0 0 0 0 0 0 0 0 0 1 1 1 1 0 0 0 1 2 5 8 11 11 10 8 6 3 1 0
0 0 0 0 0 0 0 0 1 1 1 0 0 0 0 0 0 0 0 0 0 0 0 0 0 0 0 0 0 0 0 0 0 0 0 0 0 0 1 2 5 8 10 11 11 9 5 2 1
0 0 0 0 0 0 0 2 4 4 2 1 0 0 0 0 0 0 0 0 0 0 0 0 0 0 0 0 0 0 0 0 0 0 0 0 0 0 0 0 2 4 8 14 19 18 13 7 4
0 0 0 0 0 0 1 5 9 6 2 1 0 0 0 0 0 0 0 0 0 0 0 0 0 0 0 0 0 0 0 0 0 0 0 0 0 0 0 0 0 1 3 10 18 23 22 17 13
0 0 0 0 0 0 1 5 7 4 1 0 0 0 0 0 0 0 0 0 0 0 0 0 0 0 0 0 0 0 0 0 0 0 0 0 0 0 0 0 0 0 1 4 10 17 22 25 25
0 0 0 0 0 0 0 2 2 1 0 0 0 0 0 0 0 0 0 0 0 0 0 0 0 0 0 0 0 0 0 0 0 0 0 0 0 0 0 0 0 0 0 1 4 10 16 23 27
0 0 0 0 0 0 0 0 1 0 0 0 0 0 0 0 0 0 0 0 0 0 0 0 0 0 0 0 0 0 0 0 0 0 0 0 0 0 0 0 0 0 0 0 2 5 9 14 18
0 0 0 0 0 0 0 0 0 0 0 0 0 0 0 0 0 0 0 0 0 0 0 0 0 0 0 0 0 0 0 0 0 0 0 0 0 0 1 0 0 0 0 0 0 2 3 6 9
0 0 0 0 0 0 0 0 0 0 0 0 0 0 0 0 0 0 0 0 0 0 0 0 0 0 0 0 0 0 0 0 0 0 0 0 0 0 1 0 0 0 0 0 0 0 0 2 3

GEFSSGP_con_probscp_030.txt.gz
Probability
0 0 0 0 0 0 0 0 0 0 0 0 0 0 0 0 0 0 9 40 67 53 20 6 4 3 3 1 0 0 0 0 0 0 0 0 0 0 0 0 0 0 0 0 0 0 0 0 0
0 0 0 0 0 0 0 0 0 0 0 0 0 0 0 0 0 0 10 37 55 39 14 5 3 2 1 0 0 0 0 0 0 0 0 0 0 0 0 0 0 0 0 0 0 0 0 0 0
0 0 0 0 0 0 0 0 0 0 0 0 0 0 0 0 0 1 10 32 44 30 13 6 2 1 0 0 0 0 0 0 0 0 1 1 0 0 0 0 0 0 0 0 0 0 0 0 0
0 0 0 0 0 0 0 0 0 0 0 0 2 3 2 0 0 1 10 30 43 34 19 8 4 2 0 0 0 0 0 0 0 1 2 2 1 0 0 0 0 0 0 1 1 0 0 0 0
0 0 0 0 0 0 0 0 0 0 0 0 7 11 6 0 0 1 9 25 41 45 32 16 9 6 2 1 0 0 1 1 1 2 3 2 1 0 0 1 1 0 1 3 4 2 1 1 0
0 0 0 0 0 0 0 0 0 0 0 1 9 16 10 2 0 1 6 16 39 61 52 26 14 10 6 3 2 1 2 3 3 3 3 2 1 1 1 2 4 4 6 11 14 11 6 4 2
0 0 0 0 0 0 0 0 0 0 1 2 9 17 15 6 1 1 4 12 41 70 63 30 15 12 10 7 5 5 6 7 7 6 5 5 4 4 8 15 22 27 30 34 34 28 18 12 9
0 0 0 0 0 0 0 0 0 2 6 12 19 25 22 9 1 1 3 12 39 63 54 29 20 21 18 18 20 19 18 17 16 14 14 14 13 15 24 38 52 62 64 63 57 46 33 24 19
0 0 0 0 0 0 0 0 0 3 14 27 34 34 25 11 4 5 8 14 31 46 41 32 39 40 29 34 46 45 38 37 35 32 35 37 29 25 37 54 73 85 86 83 75 62 47 36 28
0 0 0 0 0 0 0 0 0 7 23 41 45 40 30 21 19 25 30 30 32 40 43 48 60 61 50 54 68 65 58 62 60 56 65 68 50 32 34 58 81 91 92 91 87 78 65 49 37
0 0 0 0 0 0 0 2 7 17 36 51 56 52 46 46 51 60 64 59 55 57 62 68 76 79 74 75 78 74 71 78 79 77 84 87 73 49 40 58 84 93 92 91 91 89 79 61 46
0 0 0 0 0 0 2 6 15 30 45 58 68 71 70 74 81 87 89 86 84 82 81 83 86 88 87 84 80 76 75 78 82 86 89 90 86 73 62 67 81 88 87 86 86 87 82 67 56
0 0 0 0 0 1 4 9 18 32 45 57 72 81 85 89 93 96 97 97 96 94 90 88 87 86 84 81 79 76 71 69 72 79 84 86 85 81 78 76 77 77 75 73 73 73 73 69 62
0 0 0 0 0 1 4 8 14 23 35 46 61 74 82 86 90 91 92 92 91 90 89 85 80 78 79 79 77 71 63 61 64 69 75 78 75 73 76 76 73 67 61 57 53 53 58 60 58
0 0 0 0 0 0 3 8 12 14 19 28 40 52 62 67 69 69 71 72 75 79 82 77 67 64 67 68 63 56 52 56 63 68 70 68 64 61 63 67 65 58 51 44 38 38 41 44 45
0 0 0 0 0 0 5 12 12 9 13 18 23 28 35 37 36 36 40 46 56 66 73 67 54 49 50 47 41 35 38 48 60 67 69 65 56 48 47 50 50 45 39 32 27 27 29 30 30
0 0 0 0 0 1 11 21 16 10 15 17 15 13 13 14 13 13 17 24 35 48 56 52 44 39 35 29 25 22 27 37 49 60 67 63 48 37 34 35 34 29 23 19 16 16 18 19 18
0 0 0 0 0 3 16 26 19 12 15 17 14 7 4 4 4 5 6 9 16 25 31 31 30 30 25 19 17 16 19 26 34 46 57 54 41 34 32 28 23 16 11 9 7 8 9 10 10
0 0 0 0 0 3 12 20 16 10 11 13 11 5 2 1 1 1 1 3 6 10 13 15 19 23 22 18 15 14 16 17 20 30 39 38 32 30 28 24 19 12 6 5 4 3 3 3 4
0 0 0 1 0 1 5 10 10 7 6 7 5 2 1 1 1 1 1 2 4 6 8 11 19 24 24 20 13 11 12 9 10 17 22 21 18 17 19 22 20 14 8 4 4 2 0 0 1
0 0 0 0 0 1 3 6 9 7 3 2 1 0 0 1 1 1 1 1 2 4 6 10 17 22 22 16 7 5 5 3 3 6 10 9 7 6 11 16 17 14 9 5 3 2 1 0 1
0 0 0 0 0 1 3 6 9 7 3 2 2 1 0 1 1 1 1 0 0 1 3 6 10 12 11 6 2 0 0 0 0 1 2 3 3 3 5 8 9 10 9 6 4 3 2 1 0
0 0 0 0 0 1 2 4 5 5 6 9 8 3 0 0 0 0 0 0 0 0 1 2 3 3 2 1 0 0 0 0 0 0 0 1 1 1 1 2 3 5 6 6 5 5 4 2 1
0 0 0 1 1 1 1 2 4 6 12 18 14 6 1 0 0 0 0 0 0 0 0 1 1 1 0 0 0 0 0 0 0 0 0 0 0 0 0 0 1 2 3 4 6 6 6 5 3
0 0 0 2 2 2 0 2 5 9 13 16 14 6 1 0 0 0 0 0 0 0 0 0 0 0 0 0 0 0 0 0 0 0 0 0 0 0 0 0 1 1 2 3 5 6 7 6 6
0 0 0 1 1 1 3 7 9 8 8 8 6 3 1 0 0 0 0 0 0 0 0 0 0 0 0 0 0 0 0 0 0 0 0 0 0 0 0 0 0 1 1 2 3 5 6 7 7
0 0 0 0 0 0 4 11 9 4 2 1 1 1 0 0 0 0 0 0 0 0 0 0 0 0 0 0 0 0 0 0 0 0 0 0 0 0 0 0 0 1 1 1 2 2 4 5 6
0 0 0 0 0 0 3 5 4 1 0 0 0 0 0 0 0 0 0 0 0 0 0 0 0 0 0 0 0 0 0 0 0 0 0 0 0 0 0 0 0 0 1 2 2 1 1 2 4
0 0 0 0 0 0 0 0 0 0 0 0 0 0 0 0 0 0 0 0 0 0 0 0 0 0 0 0 0 0 0 0 0 0 0 0 0 0 0 0 0 0 1 1 1 1 0 1 2
0 0 0 0 0 0 0 0 0 0 0 0 0 0 0 0 0 0 0 0 0 0 0 0 0 0 0 0 0 0 0 0 0 0 0 0 0 0 0 0 0 0 0 0 0 0 0 0 1

GEFSSGP_con_probscp_036.txt.gz
Probability
0 0 0 0 0 0 0 0 0 0 0 0 0 0 1 2 2 2 2 3 3 3 3 4 5 6 6 5 4 2 1 0 0 0 1 2 3 3 3 3 3 3 3 3 3 3 3 3 3
0 0 0 0 0 0 0 0 0 0 0 0 0 0 0 1 2 3 3 3 3 3 2 4 6 6 5 5 4 2 1 1 1 1 2 3 3 3 3 3 3 3 3 3 3 3 3 3 3
0 0 0 0 0 0 0 0 0 0 0 0 0 0 0 1 3 4 4 3 3 3 3 4 5 5 5 5 5 3 3 2 2 3 3 3 3 3 3 3 3 3 3 3 3 3 3 3 3
0 0 0 0 0 0 0 0 1 2 3 1 0 0 0 3 8 10 7 4 4 4 4 4 4 5 6 7 7 6 6 4 4 3 3 3 3 3 3 4 3 3 3 3 3 3 3 3 3
0 0 0 0 0 0 0 1 6 9 9 5 1 0 1 9 19 19 10 6 6 6 5 5 5 5 6 7 8 9 8 6 4 3 3 3 3 3 4 5 4 3 3 3 3 3 3 3 3
0 0 0 0 0 0 0 3 10 18 17 11 5 2 4 15 27 24 14 9 8 7 6 5 4 4 4 5 6 7 7 6 4 3 3 3 3 3 4 6 5 4 3 3 4 4 5 5 5
0 0 0 0 0 0 1 5 16 27 30 22 12 5 5 16 30 33 23 14 9 7 5 4 3 3 3 4 4 4 4 4 3 3 3 3 3 3 4 4 4 4 5 5 6 9 10 10 10
0 0 0 0 0 0 3 12 26 41 47 41 25 13 12 26 47 55 44 26 15 9 5 4 3 3 3 3 3 3 3 3 3 3 3 3 3 3 3 4 4 5 7 9 11 17 20 20 18
0 0 0 0 0 1 7 21 39 55 64 62 49 35 35 52 72 79 66 46 30 20 13 9 6 5 4 4 3 3 3 4 5 5 5 6 6 5 5 6 6 7 9 12 19 29 34 33 31
0 0 0 0 0 4 14 30 49 66 75 74 67 61 63 75 87 88 77 64 52 42 33 26 21 17 13 11 9 7 6 7 9 10 11 13 13 10 8 8 9 10 14 21 34 45 50 51 51
0 0 0 0 0 6 19 38 58 75 81 79 77 78 81 86 89 87 81 77 72 65 57 49 44 39 33 27 21 14 10 12 16 18 18 20 20 15 11 10 11 15 24 36 50 60 64 64 64
0 0 0 0 3 10 23 41 62 76 81 83 83 85 88 89 87 84 80 78 76 74 68 62 58 53 46 37 27 19 15 16 19 20 21 25 26 19 14 12 13 18 28 42 54 61 63 60 58
0 0 0 1 7 19 34 46 56 64 71 76 81 83 83 83 81 77 71 67 66 65 61 54 50 45 37 29 22 19 18 18 17 17 21 26 26 20 15 13 14 15 21 29 38 43 44 42 40
0 0 0 2 8 21 38 47 46 45 49 57 64 68 67 66 64 59 55 52 49 45 40 34 30 25 20 15 14 16 17 14 12 13 18 21 19 16 14 12 10 8 9 12 16 20 23 23 24
0 0 0 1 3 12 27 36 32 27 28 33 39 43 45 42 39 38 36 35 31 25 20 16 14 11 9 9 9 10 10 7 5 9 12 12 11 11 12 10 6 3 2 3 5 8 11 13 15
0 0 0 0 0 4 14 21 20 15 15 15 18 21 23 21 19 20 20 17 14 11 8 7 7 7 6 6 6 5 3 2 1 3 5 5 6 7 9 6 3 1 0 1 2 4 6 9 10
0 0 0 0 0 2 6 11 12 11 9 8 8 10 10 9 8 9 8 7 6 5 3 2 3 4 3 2 3 2 1 0 0 1 1 2 3 4 5 3 1 0 0 0 1 1 3 4 6
0 0 0 0 0 1 3 7 10 9 7 6 5 5 5 5 4 3 3 3 3 2 0 0 1 1 0 0 1 1 0 0 0 0 0 1 2 2 2 1 0 0 0 0 0 0 1 2 3
0 0 0 0 0 1 2 4 6 6 4 3 3 3 3 2 1 0 0 1 1 0 0 0 0 0 0 0 0 0 0 0 0 0 0 1 1 0 0 0 0 0 0 0 0 0 0 1 2
0 0 0 0 0 0 1 3 3 3 3 1 1 2 2 1 0 0 0 0 0 0 0 0 0 0 0 0 0 0 0 0 0 0 0 0 0 0 0 0 0 0 0 0 0 0 0 0 1
0 0 0 0 0 0 2 3 3 3 2 1 0 1 1 0 0 0 0 0 0 0 0 0 0 0 0 0 0 0 0 0 0 0 0 0 0 0 0 0 0 0 0 0 0 0 0 0 0
0 0 0 0 0 0 1 2 2 2 1 0 0 0 0 0 0 0 0 0 0 0 0 0 0 0 0 0 0 0 0 0 0 0 0 0 0 0 0 0 0 0 0 0 0 0 0 0 0
0 0 0 0 0 0 0 0 1 1 0 0 0 0 0 0 0 0 0 0 0 0 0 0 0 0 0 0 0 0 0 0 0 0 0 0 0 0 0 0 0 0 0 0 0 0 0 0 0
0 0 0 0 0 0 0 0 0 0 0 0 0 0 0 0 0 0 0 0 0 0 0 0 0 0 0 0 0 0 0 0 0 0 0 0 0 0 0 0 0 0 0 0 0 0 0 0 0
0 0 0 0 0 0 0 0 0 0 0 0 0 0 0 0 0 0 0 0 0 0 0 0 0 0 0 0 0 0 0 0 0 0 0 0 0 0 0 0 0 0 0 0 0 0 0 0 0
0 0 0 0 0 0 0 0 0 0 0 0 0 0 0 0 0 0 0 0 0 0 0 0 0 0 0 0 0 0 0 0 0 0 0 0 0 0 0 0 0 0 0 0 0 0 0 0 0
0 0 0 0 0 0 0 0 0 0 0 0 0 0 0 0 0 0 0 0 0 0 0 0 0 0 0 0 0 0 0 0 0 0 0 0 0 0 0 0 0 0 0 0 0 0 0 0 0
0 0 0 0 0 0 0 0 0 0 0 0 0 0 0 0 0 0 0 0 0 0 0 0 0 0 0 0 0 0 0 0 0 0 0 0 0 0 0 0 0 0 0 0 0 0 0 0 0
0 0 0 0 0 0 0 0 0 0 0 0 0 0 0 0 0 0 0 0 0 0 0 0 0 0 0 0 0 0 0 0 0 0 0 0 0 0 0 0 0 0 0 0 0 0 0 0 0
0 0 0 0 0 0 0 0 0 0 0 0 0 0 0 0 0 0 0 0 0 0 0 0 0 0 0 0 0 0 0 0 0 0 0 0 0 0 0 0 0 0 0 0 0 0 0 0 0

GEFSSGP_con_probscp_042.txt.gz
Probability
0 0 0 0 0 0 0 0 0 0 0 0 1 4 5 3 1 0 0 0 0 1 1 0 1 2 2 2 1 0 0 0 0 0 0 0 0 0 0 0 0 0 0 0 0 0 0 0 0
0 0 0 0 0 0 0 0 0 0 0 0 1 3 5 4 1 0 0 1 2 3 2 0 0 1 1 1 0 0 0 0 0 0 0 0 0 0 0 0 0 0 0 0 0 0 0 0 0
0 0 0 0 0 0 0 0 0 0 0 0 0 1 3 3 1 0 1 3 6 7 3 1 0 0 0 1 1 1 1 0 0 0 0 0 0 0 0 0 0 0 0 0 0 0 0 0 0
0 0 0 0 0 0 0 0 0 0 0 0 0 1 2 1 0 1 2 5 9 8 4 1 1 1 0 1 2 2 1 0 0 0 0 0 0 0 0 0 0 0 0 0 0 0 0 0 0
0 0 0 0 0 0 0 0 1 1 0 0 2 4 3 1 1 2 3 6 8 8 3 1 1 1 1 1 1 1 1 1 0 0 0 0 0 0 0 0 0 0 0 0 0 0 0 0 0
0 0 0 0 0 0 0 1 2 2 0 0 2 5 6 5 3 3 5 7 8 8 4 1 1 1 1 0 0 0 0 1 0 0 0 0 0 0 0 0 0 0 0 0 0 0 0 0 0
0 0 0 0 0 1 0 2 4 3 2 1 2 6 12 14 10 9 10 11 10 9 6 3 1 1 1 0 0 0 0 0 0 0 0 0 0 0 0 0 0 0 0 0 0 0 0 1 1
0 0 0 0 0 0 0 2 5 6 7 6 6 11 23 33 32 28 25 19 14 10 6 3 3 3 3 2 0 0 0 0 0 0 0 0 0 0 0 0 0 0 0 0 0 1 1 2 2
0 0 0 0 0 0 2 6 9 14 22 25 27 33 47 60 62 55 44 30 18 10 5 3 3 5 6 5 3 2 1 1 1 1 1 1 2 2 2 2 1 1 1 1 2 3 3 3 3
0 0 0 0 0 1 5 15 23 32 45 51 55 66 76 82 81 71 56 37 19 11 7 5 4 5 7 8 7 5 4 3 3 3 3 5 6 8 10 9 6 4 3 4 5 6 7 8 9
0 0 0 0 1 6 16 32 45 55 63 65 69 80 87 87 81 72 58 38 22 16 12 8 5 4 6 8 7 6 4 4 4 4 7 9 11 14 18 17 12 8 6 7 8 9 11 14 16
0 0 2 5 11 22 36 51 62 67 68 67 71 78 81 77 69 61 49 34 24 19 14 9 6 4 4 5 5 4 3 2 3 5 8 12 14 17 21 21 15 10 8 9 9 10 13 16 17
0 1 4 13 25 39 53 60 61 61 60 64 70 72 69 61 52 42 32 23 18 14 9 5 3 3 2 3 2 1 1 1 1 2 6 11 14 17 20 19 14 9 7 6 6 6 8 11 13
0 0 3 12 24 37 50 53 50 46 48 55 59 57 52 45 35 25 16 12 10 8 5 2 1 2 1 1 1 0 0 0 0 1 3 7 10 12 13 12 10 6 4 2 1 1 3 5 6
0 0 1 4 9 19 31 38 35 32 37 43 43 38 35 31 22 12 7 6 5 4 2 1 1 1 0 0 0 0 0 0 0 0 1 4 6 6 5 5 5 4 2 1 0 0 0 1 1
0 0 0 0 1 5 13 20 19 20 26 30 28 24 22 21 13 6 3 3 2 1 1 0 0 0 0 0 0 0 0 0 0 0 0 2 3 2 1 1 1 1 0 0 0 0 0 0 0
0 0 0 0 0 1 5 8 10 12 15 16 14 12 13 13 8 3 1 1 0 0 0 0 0 0 0 0 0 0 0 0 0 0 0 0 1 0 0 0 0 0 0 0 0 0 0 0 0
0 0 0 0 0 1 3 5 7 8 8 7 6 5 6 6 4 1 0 0 0 0 0 0 0 0 0 0 0 0 0 0 0 0 0 0 0 0 0 0 0 0 0 0 0 0 0 0 0
0 0 0 0 0 0 1 3 5 5 4 3 3 3 3 3 1 0 0 0 0 0 0 0 0 0 0 0 0 0 0 0 0 0 0 0 0 0 0 0 0 0 0 0 0 0 0 0 0
0 0 0 0 0 0 0 1 2 2 1 1 1 2 3 2 1 0 0 0 0 0 0 0 0 0 0 0 0 0 0 0 0 0 0 0 0 0 0 0 0 0 0 0 0 0 0 0 0
0 0 0 0 0 0 0 0 0 0 0 0 0 1 2 1 0 0 0 0 0 0 0 0 0 0 0 0 0 0 0 0 0 0 0 0 0 0 0 0 0 0 0 0 0 0 0 0 0
0 0 0 0 0 0 0 0 0 0 0 0 0 0 0 0 0 0 0 0 0 0 0 0 0 0 0 0 0 0 0 0 0 0 0 0 0 0 0 0 0 0 0 0 0 0 0 0 0
0 0 0 0 0 0 0 0 0 0 0 0 0 0 0 0 0 0 0 0 0 0 0 0 0 0 0 0 0 0 0 0 0 0 0 0 0 0 0 0 0 0 0 0 0 0 0 0 0
0 0 0 0 0 0 0 0 0 0 0 0 0 0 0 0 0 0 0 0 0 0 0 0 0 0 0 0 0 0 0 0 0 0 0 0 0 0 0 0 0 0 0 0 0 0 0 0 0
0 0 0 0 0 0 0 0 0 0 0 0 0 0 0 0 0 0 0 0 0 0 0 0 0 0 0 0 0 0 0 0 0 0 0 0 0 0 0 0 0 0 0 0 0 0 0 0 0
0 0 0 0 0 0 0 0 0 0 0 0 0 0 0 0 0 0 0 0 0 0 0 0 0 0 0 0 0 0 0 0 0 0 0 0 0 0 0 0 0 0 0 0 0 0 0 0 0
0 0 0 0 0 0 0 0 0 0 0 0 0 0 0 0 0 0 0 0 0 0 0 0 0 0 0 0 0 0 0 0 0 0 0 0 0 0 0 0 0 0 0 0 0 0 0 0 0
0 0 0 0 0 0 0 0 0 0 0 0 0 0 0 0 0 0 0 0 0 0 0 0 0 0 0 0 0 0 0 0 0 0 0 0 0 0 0 0 0 0 0 0 0 0 0 0 0
0 0 0 0 0 0 0 0 0 0 0 0 0 0 0 0 0 0 0 0 0 0 0 0 0 0 0 0 0 0 0 0 0 0 0 0 0 0 0 0 0 0 0 0 0 0 0 0 0
0 0 0 0 0 0 0 0 0 0 0 0 0 0 0 0 0 0 0 0 0 0 0 0 0 0 0 0 0 0 0 0 0 0 0 0 0 0 0 0 0 0 0 0 0 0 0 0 0

GEFSSGP_con_probscp_048.txt.gz
Probability
0 0 0 0 0 0 0 0 0 0 0 0 0 0 0 0 0 0 0 0 0 0 0 0 0 0 0 0 0 0 0 0 0 0 0 0 0 0 0 0 0 0 0 0 0 0 0 0 0
0 0 0 0 0 0 0 0 0 0 0 0 0 0 0 0 0 0 0 0 0 0 0 0 0 0 0 0 0 0 0 0 0 0 0 0 0 0 0 0 0 0 0 0 0 0 0 0 0
0 0 0 0 0 0 0 0 0 0 0 0 0 0 0 0 0 0 0 0 0 0 0 0 0 0 0 0 0 0 0 0 0 0 0 0 0 0 0 0 0 0 0 0 0 0 0 0 0
0 0 0 0 0 0 0 0 0 0 0 0 0 0 0 0 0 0 0 0 0 0 0 0 0 0 0 0 0 0 0 0 0 0 0 0 0 0 0 0 0 0 0 0 0 0 0 0 0
0 0 0 0 0 0 0 0 0 0 0 0 0 0 0 0 0 0 0 0 0 0 0 0 0 0 1 1 2 3 2 1 0 0 0 0 0 0 0 0 0 0 0 0 0 0 0 0 0
0 0 0 0 0 0 1 2 3 2 1 1 0 0 0 0 1 1 0 1 1 0 0 0 0 1 2 3 5 6 5 3 1 1 1 0 0 0 0 0 0 0 0 0 0 0 0 0 0
0 0 0 0 0 0 2 7 10 9 6 3 1 2 5 6 6 5 4 4 3 1 0 1 2 2 3 5 7 8 7 4 3 2 1 1 0 0 0 0 0 0 0 0 0 0 0 0 0
0 0 0 0 0 1 3 8 15 17 14 10 8 12 20 24 22 18 14 11 7 3 1 2 3 3 3 5 8 9 7 6 5 3 1 1 1 2 2 2 2 1 0 0 0 0 0 0 0
0 0 0 0 1 2 3 6 12 16 21 29 35 42 49 49 43 35 27 18 11 6 4 4 4 4 4 5 9 10 8 8 8 6 4 3 4 5 7 8 7 4 2 2 1 1 0 0 1
0 0 0 0 2 4 4 5 7 11 25 49 67 76 75 68 59 47 33 22 14 8 7 8 7 6 5 6 10 12 10 8 8 10 12 11 11 12 14 17 15 10 6 3 3 3 2 2 3
0 0 0 1 2 4 5 7 9 17 37 63 80 84 82 76 66 53 38 27 19 14 12 12 12 11 10 11 11 11 10 7 8 13 17 18 19 19 22 25 23 19 13 9 10 10 7 7 9
0 0 0 1 2 3 4 9 19 34 54 71 77 78 79 77 69 55 44 33 26 22 19 16 14 15 16 14 10 8 8 6 7 10 13 16 19 20 25 28 28 28 24 21 20 18 15 14 15
0 0 0 1 1 1 3 11 26 47 64 74 77 76 77 75 67 55 44 36 30 27 24 18 14 14 14 11 7 5 5 4 4 5 7 10 13 15 18 24 27 28 29 28 24 22 22 21 18
0 0 0 0 0 0 2 9 25 44 59 69 74 74 72 68 60 49 40 32 28 26 23 16 11 9 8 6 3 2 1 1 1 2 3 5 8 9 10 15 19 20 21 21 18 18 20 18 14
0 0 0 0 0 0 1 7 20 34 46 58 65 66 64 59 51 42 34 28 22 19 15 10 4 3 3 2 1 0 0 0 0 1 1 2 4 5 6 9 10 10 9 9 10 11 10 9 6
0 0 0 0 0 0 1 5 14 24 34 45 51 53 54 51 43 34 25 20 15 11 7 3 1 0 0 0 0 0 0 0 0 0 0 0 1 2 4 4 5 4 3 4 5 5 4 3 2
0 0 0 0 0 0 0 4 11 18 27 35 39 40 41 41 33 23 14 10 8 5 2 0 0 0 0 0 0 0 0 0 0 0 0 0 0 0 1 1 1 2 2 3 3 2 3 3 2
0 0 0 0 0 0 0 4 11 16 21 27 27 25 26 25 20 13 7 3 2 1 0 0 0 0 0 0 0 0 0 0 0 0 0 0 0 0 0 0 0 1 1 1 1 1 2 2 2
0 0 0 0 0 0 1 4 8 12 15 18 16 13 12 12 11 8 3 1 0 0 0 0 0 0 0 0 0 0 0 0 0 0 0 0 0 0 0 0 0 0 0 0 0 0 1 1 1
0 0 0 0 0 0 1 2 4 6 9 10 8 5 4 5 5 3 1 0 0 0 0 0 0 0 0 1 1 0 0 0 0 0 0 0 0 0 0 0 0 0 0 0 0 0 0 0 0
0 0 0 0 0 0 0 1 1 2 4 4 3 1 1 1 1 1 0 0 0 0 0 0 1 2 1 2 1 0 0 0 0 0 0 0 0 0 0 0 0 0 0 0 0 0 0 0 0
0 0 0 0 0 0 0 0 0 1 1 1 0 0 0 0 0 0 0 0 0 0 0 1 4 5 4 2 2 0 0 0 0 0 0 0 0 0 0 0 0 0 0 0 0 0 0 0 0
0 0 0 0 0 0 0 0 0 0 0 1 0 0 0 0 0 0 0 0 0 0 0 3 7 8 5 2 1 0 0 0 0 0 0 0 0 0 0 0 0 0 0 0 0 0 0 0 0
0 0 0 0 0 0 0 0 0 0 0 0 0 0 0 0 0 0 0 0 0 0 0 2 6 7 4 1 1 0 0 0 0 0 0 0 0 0 0 0 0 0 0 0 0 0 0 0 0
0 0 0 0 0 0 0 0 0 0 0 0 0 0 0 0 0 0 0 0 0 0 0 0 2 2 1 0 0 0 0 0 0 0 0 0 0 0 0 0 0 0 0 0 0 0 0 0 0
0 0 0 0 0 0 0 0 0 0 0 0 0 0 0 0 0 0 0 0 0 0 0 0 0 0 0 0 0 0 0 0 0 0 0 0 0 0 0 0 0 0 0 0 0 0 0 0 0
0 0 0 0 0 0 0 0 0 0 0 0 0 0 0 0 0 0 0 0 0 0 0 0 0 0 0 0 0 0 0 0 0 0 0 0 0 0 0 0 0 0 0 0 0 0 0 0 0
0 0 0 0 0 0 0 0 0 0 0 0 0 0 0 0 0 0 0 0 0 0 0 0 0 0 0 0 0 0 0 0 0 0 0 0 0 0 0 0 0 0 0 0 0 0 0 0 0
0 0 0 0 0 0 0 0 0 0 0 0 0 0 0 0 0 0 0 0 0 0 0 0 0 0 0 0 0 0 0 0 0 0 0 0 0 0 0 0 0 0 0 0 0 0 0 0 0
0 0 0 0 0 0 0 0 0 0 0 0 0 0 0 0 0 0 0 0 0 0 0 0 0 0 0 0 0 0 0 0 0 0 0 0 0 0 0 0 0 0 0 0 0 0 0 0 0

GEFSSGP_con_probscp_054.txt.gz
Probability
0 0 0 0 0 0 0 0 0 0 0 0 0 0 0 0 0 0 2 7 7 3 0 2 4 3 1 0 0 0 0 1 1 0 1 1 1 0 0 0 0 0 0 0 0 0 0 0 0
0 0 0 0 0 0 0 0 0 0 0 0 1 1 1 0 0 0 1 4 4 2 1 2 3 3 1 1 1 1 1 1 1 1 1 1 1 0 0 0 0 0 0 0 0 0 0 0 0
0 0 0 0 0 0 0 0 0 0 0 1 4 4 2 0 0 0 0 2 3 2 1 2 3 3 2 2 2 2 1 1 1 1 2 1 1 0 0 0 0 0 0 0 0 0 0 0 0
0 0 0 0 0 0 0 0 0 1 1 4 10 11 6 2 1 0 0 2 4 4 2 1 2 2 1 1 1 1 1 0 0 1 2 1 0 0 0 0 0 0 0 0 0 0 0 0 0
0 0 0 0 0 0 0 0 2 4 5 10 19 20 12 4 1 0 1 5 10 9 4 1 2 2 1 1 1 0 0 0 0 1 1 1 0 0 0 0 0 0 0 0 0 0 0 0 0
0 0 0 0 0 0 1 2 5 8 10 17 26 26 16 6 1 0 1 7 18 19 8 2 2 3 3 3 2 1 0 0 0 0 0 0 0 0 0 0 0 0 0 0 0 0 0 0 0
0 0 0 0 0 2 3 6 10 14 16 20 26 27 19 9 3 1 2 11 24 24 12 4 3 2 2 3 2 1 0 0 0 0 0 0 0 1 1 0 0 0 0 0 0 0 0 0 0
0 0 0 0 0 3 6 10 15 20 23 26 32 34 28 16 9 6 8 20 31 29 19 12 7 2 1 1 1 0 0 0 0 0 1 2 2 2 3 2 1 1 1 0 0 0 0 0 1
0 0 0 0 0 2 6 9 13 21 32 44 52 52 40 23 15 15 21 34 43 42 34 25 16 7 3 2 1 0 0 0 0 1 2 3 4 4 7 9 7 5 4 2 0 0 0 1 2
0 0 0 0 0 1 2 4 8 19 37 56 65 58 40 25 21 26 37 49 56 55 47 37 29 23 17 11 6 4 4 3 2 3 4 6 7 8 13 19 18 12 10 7 5 3 2 2 3
0 0 0 0 0 0 0 3 11 24 40 54 57 45 31 25 28 39 51 60 67 65 53 43 43 45 38 26 16 11 9 6 6 7 7 9 13 16 20 25 25 20 15 14 13 10 7 6 6
0 0 0 0 0 0 1 7 20 33 41 45 41 30 24 30 42 54 63 72 77 74 62 53 53 54 48 34 20 13 10 7 7 8 7 9 14 18 21 24 25 24 20 18 19 18 15 12 10
0 0 0 0 0 0 1 9 23 32 34 34 32 28 32 45 60 70 77 83 85 79 71 61 53 48 40 27 15 9 7 5 4 5 5 6 9 10 12 18 22 23 21 20 22 23 20 15 12
0 0 0 0 0 0 2 8 19 24 25 29 36 43 52 64 74 82 85 86 84 79 69 54 41 32 23 14 7 5 3 2 1 1 2 3 4 5 6 12 18 19 18 19 20 20 16 12 11
0 0 0 0 0 0 2 7 14 17 18 27 44 56 64 71 77 80 81 79 76 71 56 36 22 15 9 4 2 1 1 1 0 0 0 1 2 4 6 9 13 15 13 12 11 11 10 9 8
0 0 0 0 0 0 2 6 11 10 11 24 43 56 62 66 68 67 66 66 64 58 42 22 10 5 3 1 0 0 0 0 0 0 0 0 0 2 4 6 8 9 8 6 6 8 9 8 7
0 0 0 0 0 0 1 4 6 5 8 23 41 53 58 59 56 53 51 51 49 43 31 15 6 2 1 0 0 0 0 0 0 0 0 0 0 0 2 3 3 3 4 4 5 7 8 8 8
0 0 0 0 0 0 1 2 4 5 10 23 39 49 51 51 48 42 39 35 31 27 19 9 3 1 0 0 0 0 0 0 0 0 0 0 0 0 0 1 0 0 1 2 4 5 5 5 6
0 0 0 0 0 0 1 2 4 6 11 20 30 35 37 38 36 31 25 21 16 12 8 3 0 0 0 1 1 2 1 0 0 0 0 0 0 0 0 0 0 0 0 1 1 1 1 1 2
0 0 0 0 0 0 1 2 3 6 10 14 18 19 20 21 21 16 12 10 7 4 2 1 0 1 2 3 3 3 2 1 1 0 0 0 0 0 0 0 0 0 0 0 0 0 0 0 0
0 0 0 0 0 0 1 1 2 6 9 9 10 10 8 8 9 7 4 3 2 1 0 1 3 5 7 7 5 3 2 2 1 0 0 0 0 0 0 0 0 0 0 0 0 0 0 0 0
0 0 0 0 0 0 0 0 2 5 6 6 7 7 4 3 4 3 1 0 0 0 1 6 14 18 18 14 8 3 1 1 1 1 0 0 0 0 0 0 0 0 0 0 0 0 0 0 0
0 0 0 0 0 0 0 0 1 3 3 3 3 3 2 1 2 1 0 0 0 0 4 15 29 35 31 22 13 5 2 0 0 1 0 0 0 0 0 0 0 0 0 0 0 0 0 0 0
0 0 0 0 0 0 0 0 1 1 1 1 1 1 1 1 1 2 1 1 1 1 6 20 39 47 40 29 16 7 3 1 0 0 0 0 0 0 0 0 0 0 0 0 0 0 0 0 0
0 0 0 0 0 0 0 0 0 0 0 0 0 0 0 1 2 3 3 2 2 2 5 20 40 48 42 29 16 8 4 1 0 0 0 0 0 0 0 0 0 0 0 0 0 0 0 0 0
0 0 0 0 0 0 0 0 0 0 0 0 0 0 0 1 3 3 2 1 1 1 5 17 35 44 36 24 14 7 3 1 0 0 0 0 0 0 0 0 0 0 0 0 0 0 0 0 0
0 0 0 0 0 0 0 0 0 0 0 0 0 1 0 1 2 3 1 1 1 2 6 16 29 33 26 17 10 5 2 1 0 0 0 0 0 0 0 0 0 0 0 0 0 0 0 0 0
0 0 0 0 0 0 0 0 0 0 0 0 0 0 0 1 2 2 2 2 1 3 8 15 21 22 17 10 5 2 1 0 0 1 0 0 0 0 0 0 0 0 0 0 0 0 0 0 0
0 0 0 0 0 0 0 0 0 0 0 0 0 0 0 0 1 1 1 3 3 4 6 10 13 12 9 4 1 0 0 0 0 0 0 0 0 0 1 0 0 0 0 0 0 0 0 0 0
0 0 0 0 0 0 0 0 0 0 0 0 0 0 0 0 0 0 1 3 4 4 5 7 7 6 4 1 0 0 0 0 0 0 0 0 0 0 1 0 0 0 0 0 0 0 0 0 0

GEFSSGP_con_probscp_060.txt.gz
Probability
1 1 0 0 0 0 0 0 0 0 0 1 3 3 2 1 1 1 1 2 5 4 2 1 1 0 0 0 0 0 0 0 0 0 0 0 0 0 0 0 0 0 0 0 0 0 0 0 0
1 0 0 0 0 0 0 0 0 1 1 2 4 5 4 3 2 1 1 2 4 5 3 2 2 2 0 0 0 0 0 0 0 0 0 0 0 0 0 0 0 0 0 0 0 0 0 0 0
0 0 0 0 0 0 0 1 1 2 3 5 7 9 6 3 1 1 0 2 4 4 4 5 5 3 1 0 0 0 0 0 0 0 0 0 0 0 0 0 0 0 0 0 0 0 0 0 0
0 0 0 0 0 0 2 4 4 4 7 10 13 14 11 6 3 2 0 2 4 3 3 4 4 3 1 0 0 1 0 0 0 0 0 0 0 0 0 0 0 0 0 0 0 0 0 0 0
0 0 0 0 0 1 4 8 11 14 17 18 20 22 19 13 8 4 1 2 4 2 1 2 3 2 1 1 1 1 1 0 0 0 0 0 0 0 0 0 0 0 0 0 0 0 0 0 0
0 0 1 0 0 2 6 11 18 25 26 24 24 25 21 16 11 4 1 1 2 2 1 1 2 2 1 2 2 2 1 1 0 0 0 0 0 0 0 0 0 0 0 0 0 0 0 0 0
0 0 0 0 0 1 5 11 20 26 27 25 25 24 21 18 14 7 3 2 1 2 2 2 1 1 2 2 2 2 1 1 1 0 0 0 0 0 0 0 0 0 0 0 0 0 0 0 0
0 0 0 0 0 0 3 9 15 19 21 21 21 22 23 26 26 19 11 6 3 2 2 1 0 0 1 1 2 2 2 1 1 0 0 0 0 0 0 0 0 0 0 0 0 0 0 0 0
0 0 0 0 0 1 3 7 11 14 15 15 16 19 26 37 43 34 20 13 8 4 1 0 0 0 0 1 2 2 1 1 0 0 0 0 0 0 0 1 1 1 1 1 1 0 0 0 0
0 0 0 0 0 1 3 7 11 12 11 11 13 18 28 43 50 40 25 17 11 6 2 0 0 0 1 1 2 1 0 0 0 0 0 0 0 0 0 1 2 2 2 2 1 1 1 0 0
0 0 0 0 0 1 2 5 10 12 9 10 14 21 31 42 46 39 29 21 14 8 4 1 1 2 2 2 1 0 0 0 0 0 0 0 0 0 0 1 1 1 2 1 1 1 1 0 0
0 0 0 0 0 1 2 5 9 11 9 12 17 24 31 36 38 38 34 28 23 16 10 6 4 3 2 1 0 0 0 0 0 0 0 0 0 0 0 0 0 0 0 0 0 1 0 0 1
0 0 0 0 0 1 3 6 7 10 12 15 19 24 26 28 30 34 36 35 32 26 19 11 6 3 1 0 0 0 0 0 0 0 0 0 0 0 0 0 0 0 0 0 0 0 0 0 1
0 0 0 0 0 1 4 5 4 6 11 14 16 17 18 20 24 30 34 36 34 29 21 11 4 1 0 0 0 0 0 0 0 0 0 0 0 0 0 0 0 0 0 0 0 0 0 0 1
0 0 0 0 0 1 3 3 2 3 6 10 10 10 13 17 23 30 34 34 31 24 16 7 1 0 0 0 0 0 0 0 0 0 0 0 0 0 0 0 0 0 0 0 0 0 0 0 0
0 0 0 0 0 0 1 2 2 2 3 5 6 8 12 16 21 28 31 30 25 17 9 3 0 0 0 0 0 0 0 0 0 0 0 0 0 0 0 0 0 0 0 0 0 0 0 0 0
0 0 0 0 0 0 0 1 2 2 2 4 6 8 12 16 17 20 24 23 18 11 5 2 0 0 0 0 0 0 0 0 0 0 0 0 0 0 0 0 0 0 0 0 0 0 0 0 0
0 0 0 0 0 0 0 1 1 1 2 5 6 8 11 13 13 14 15 16 12 5 2 1 0 0 0 0 0 0 0 0 0 0 0 0 0 0 0 0 0 0 0 0 0 0 0 0 0
0 0 0 0 0 0 0 1 1 2 3 5 6 7 9 10 11 11 10 9 6 2 0 0 0 0 0 0 0 0 0 0 0 0 0 0 0 0 0 0 0 0 0 0 0 0 0 0 0
0 0 0 0 0 0 0 0 1 2 3 6 7 7 8 9 8 7 6 4 2 0 0 0 0 0 0 0 0 0 0 0 0 0 0 0 0 0 0 0 0 0 0 0 0 0 0 0 0
0 0 0 0 0 0 0 0 0 1 2 6 8 8 8 8 6 4 2 1 0 0 0 0 0 0 0 0 0 0 0 0 0 0 0 0 0 0 0 0 0 0 0 0 0 0 0 0 0
0 0 0 0 0 0 0 0 0 0 1 5 8 8 7 6 4 1 0 0 0 0 0 0 0 0 0 0 0 0 0 0 0 0 0 0 0 0 0 0 0 0 0 0 0 0 0 0 0
0 0 0 0 0 0 0 0 0 0 1 3 5 6 5 4 2 0 0 0 0 0 0 0 0 0 0 0 0 0 0 0 0 0 0 0 0 0 0 0 0 0 0 0 0 0 0 0 0
0 0 0 0 0 0 0 0 0 0 0 1 2 3 2 1 1 0 0 0 0 0 0 0 0 0 0 0 0 0 0 0 0 0 0 0 0 0 0 0 0 0 0 0 0 0 0 0 0
0 0 0 0 0 0 0 0 0 0 0 0 1 1 1 0 0 0 0 0 0 0 0 0 0 0 0 0 0 0 0 0 0 0 0 0 0 0 0 0 0 0 0 0 0 0 0 0 0
0 0 0 0 0 0 0 0 0 0 0 0 0 1 0 0 1 1 1 0 0 0 0 0 0 0 0 0 0 0 0 0 0 0 0 0 0 0 0 0 0 0 0 0 0 0 0 0 0
0 0 0 0 0 0 0 0 0 0 0 0 0 0 0 0 1 2 2 1 0 0 0 0 0 0 0 0 0 0 0 0 0 0 0 0 0 0 0 0 0 0 0 0 0 0 0 0 0
0 0 0 0 0 0 0 0 0 0 0 0 0 0 0 0 0 1 1 1 0 0 0 0 0 0 1 1 1 0 0 0 0 0 0 0 0 0 0 0 0 0 0 0 0 0 0 0 0
0 0 0 0 0 0 0 0 0 0 0 0 0 0 0 0 0 0 0 0 0 0 0 0 0 0 1 2 1 0 0 0 0 0 0 0 0 0 0 0 0 0 0 0 0 0 0 0 0
0 0 0 0 0 0 0 0 0 0 0 0 0 0 0 0 0 0 0 0 0 0 0 0 0 1 2 2 1 0 0 0 0 0 0 0 0 0 0 0 0 0 0 0 0 0 0 0 0

GEFSSGP_con_probscp_066.txt.gz
Probability
0 0 0 0 0 0 0 0 0 0 0 0 0 0 0 0 0 0 0 1 2 2 1 0 0 0 0 1 0 0 0 0 0 0 0 0 0 0 0 0 0 0 0 0 0 0 0 0 0
0 0 0 0 0 0 0 0 0 0 1 1 0 0 0 1 1 1 0 1 3 3 1 0 0 0 1 1 1 0 0 0 0 0 0 0 0 0 0 0 0 0 0 0 0 0 0 0 0
0 0 0 0 0 0 0 1 1 1 2 2 1 0 0 1 2 2 1 1 3 4 3 3 3 3 2 2 1 0 0 0 0 0 0 0 0 0 0 0 0 0 0 0 0 0 0 0 0
0 0 0 0 0 0 0 1 2 4 4 4 3 1 1 2 3 3 3 4 6 7 6 7 8 7 4 1 0 0 0 0 0 0 0 0 0 0 0 0 0 0 0 0 0 0 0 0 0
0 0 0 0 0 0 0 1 4 7 8 7 5 2 2 4 6 7 8 11 14 14 12 10 10 8 4 1 0 0 0 0 0 0 0 0 0 0 0 0 0 0 0 0 0 0 0 0 0
0 0 0 0 0 0 0 2 7 11 12 10 7 5 4 6 9 11 14 18 20 20 17 13 11 7 3 0 0 0 0 0 0 0 0 0 0 0 0 0 0 0 0 0 0 0 0 0 0
0 0 0 0 0 0 1 4 8 12 13 11 9 7 5 7 11 15 19 22 22 22 19 14 10 5 2 0 0 0 0 0 0 0 0 0 0 0 0 0 0 0 0 0 0 0 0 0 0
0 0 0 0 0 1 2 4 8 10 11 11 10 9 8 11 16 19 23 25 22 20 17 12 8 4 2 1 0 0 0 0 1 1 0 0 0 0 0 0 0 0 0 0 0 0 0 0 0
0 0 0 0 0 0 2 4 7 9 10 10 9 10 14 23 26 24 23 23 19 16 12 10 7 6 4 3 1 0 0 0 1 1 0 0 0 0 0 0 0 0 0 0 0 0 0 0 0
0 0 0 0 0 0 1 4 6 8 9 9 12 16 25 34 32 23 19 17 14 10 8 8 8 8 7 5 3 1 0 0 1 1 0 0 0 0 0 0 1 0 0 0 0 0 0 0 0
0 0 0 0 0 0 1 3 4 6 6 8 17 29 36 36 29 19 13 10 8 7 7 8 10 9 8 6 4 2 0 0 0 0 0 0 0 0 0 0 0 0 0 0 0 0 0 0 0
0 0 0 0 0 0 1 2 3 4 4 8 20 34 38 32 25 17 10 6 5 4 5 9 10 8 6 5 3 1 0 0 0 0 0 0 0 0 0 0 0 0 0 0 0 0 0 0 0
0 0 0 0 0 0 0 1 1 2 3 10 20 29 31 27 21 17 13 9 6 3 4 7 8 5 3 2 1 0 0 0 0 0 0 0 0 0 0 0 0 0 0 0 0 0 0 0 0
0 0 0 0 0 0 0 0 0 1 4 12 20 24 25 22 19 18 17 13 8 3 3 5 5 2 1 0 0 0 0 0 0 0 0 0 0 0 0 0 0 0 0 0 0 0 0 0 0
0 0 0 0 0 0 0 0 1 2 6 12 17 18 19 19 18 19 19 15 8 5 4 5 3 1 0 0 0 0 0 0 0 0 0 0 0 0 0 0 0 0 0 0 0 0 0 0 0
0 0 0 0 0 0 0 0 1 3 7 10 10 8 10 14 17 18 17 13 9 6 5 4 3 1 0 0 0 0 0 0 0 0 0 0 0 0 0 0 0 0 0 0 0 0 0 0 0
0 0 0 0 0 0 0 0 1 2 4 6 5 4 5 9 13 14 14 11 9 8 5 3 1 0 0 0 0 0 0 0 0 0 0 0 0 0 0 0 0 0 0 0 0 0 0 0 0
0 0 0 0 0 0 0 0 0 1 2 4 5 5 6 7 8 9 10 10 8 7 4 1 0 0 0 0 0 0 0 0 0 0 0 0 0 0 0 0 0 0 0 0 0 0 0 0 0
0 0 0 0 0 0 0 0 0 1 2 3 5 5 6 6 5 6 7 7 6 4 2 0 0 0 0 0 0 0 0 0 0 0 0 0 0 0 0 0 0 0 0 0 0 0 0 0 0
0 0 0 0 0 0 0 0 0 1 2 3 4 4 4 5 4 4 5 4 4 2 1 0 0 0 0 0 0 0 0 0 0 0 0 0 0 0 0 0 0 0 0 0 0 0 0 0 0
0 0 0 0 0 0 0 0 0 0 1 1 3 3 3 4 4 4 4 4 2 1 0 0 0 0 0 0 0 0 0 0 0 0 0 0 0 0 0 0 0 0 0 0 0 0 0 0 0
0 0 0 0 0 0 0 0 0 0 0 1 2 3 3 3 3 3 3 2 1 0 0 0 0 0 0 0 0 0 0 0 0 0 0 0 0 0 0 0 0 0 0 0 0 0 0 0 0
0 0 0 0 0 0 0 0 0 0 0 0 1 1 3 3 2 1 1 1 0 0 0 0 0 0 0 0 0 0 0 0 0 0 0 0 0 0 0 0 0 0 0 0 0 0 0 0 0
0 0 0 0 0 0 0 0 0 0 0 0 0 1 2 2 1 0 0 0 0 0 0 0 0 0 0 0 0 0 0 0 0 0 0 0 0 0 0 0 0 0 0 0 0 0 0 0 0
0 0 0 0 0 0 0 0 0 0 0 0 0 0 1 1 1 0 0 0 0 0 0 0 0 0 0 0 0 0 0 0 0 0 0 0 0 0 0 0 0 0 0 0 0 0 0 0 0
0 0 0 0 0 0 0 0 0 0 0 0 0 0 0 0 0 0 0 1 1 0 0 0 0 0 0 0 0 0 0 0 0 0 0 0 0 0 0 0 0 0 0 0 0 0 0 0 0
0 0 0 0 0 0 0 0 0 0 0 0 0 0 0 0 0 0 0 1 2 1 1 0 0 0 0 0 0 0 0 0 0 0 0 0 0 0 0 0 0 0 0 0 0 0 0 0 0
0 0 0 0 0 0 0 0 0 0 0 0 0 0 0 0 0 0 0 1 2 2 1 0 0 0 0 0 0 0 0 0 0 0 0 0 0 0 0 0 0 0 0 0 0 0 0 0 0
0 0 0 0 0 0 0 0 0 0 0 0 0 0 0 0 0 0 0 0 1 1 1 0 0 0 0 0 0 0 0 0 0 0 0 0 0 0 0 0 0 0 0 0 0 0 0 0 0
0 0 0 0 0 0 0 0 0 0 0 0 0 0 0 0 0 0 0 0 0 0 0 0 0 0 0 0 0 0 0 0 0 0 0 0 0 0 0 0 0 0 0 0 0 0 0 0 0

GEFSSGP_con_probscp_072.txt.gz
Probability
0 0 0 0 0 0 0 0 0 0 0 0 0 0 0 0 1 1 1 1 1 2 2 1 1 0 0 1 1 1 0 0 0 0 0 0 0 0 0 0 0 0 0 0 0 0 0 0 0
0 0 0 0 0 0 0 0 0 0 0 0 0 0 0 0 1 1 1 1 1 2 2 1 1 0 0 0 0 0 0 0 0 0 0 0 0 0 0 0 0 0 0 0 0 0 0 0 0
0 0 0 0 0 0 0 0 0 0 0 0 0 0 0 0 1 1 1 1 1 1 1 0 0 0 0 0 0 0 0 0 0 0 0 0 0 0 0 0 0 0 0 0 0 0 0 0 0
0 0 0 0 0 0 0 0 0 0 0 0 0 0 1 2 2 1 1 0 1 1 0 0 0 0 0 0 0 0 0 0 0 0 0 0 0 0 0 0 0 0 0 0 0 0 0 0 0
0 0 0 0 0 0 0 0 0 0 0 0 1 2 5 8 8 5 2 0 0 0 0 0 1 1 1 0 0 0 0 1 0 0 0 0 0 0 0 0 0 0 0 0 0 0 0 0 0
0 0 0 0 0 0 0 0 0 0 1 1 2 4 8 14 15 10 4 1 0 0 0 0 1 2 1 2 1 1 1 1 0 0 0 0 0 0 0 0 0 0 0 0 0 0 0 0 0
0 0 0 0 0 0 0 1 2 2 2 2 3 5 10 17 20 16 8 4 2 0 0 0 1 1 1 2 2 2 2 2 1 0 0 0 0 0 0 0 0 0 0 0 0 0 0 0 0
0 0 0 0 0 0 0 1 3 3 2 2 3 5 12 22 27 22 15 11 7 3 0 0 1 1 1 1 2 2 3 2 1 0 0 1 0 0 0 0 0 0 0 0 0 0 0 0 0
0 0 0 0 0 0 0 1 2 3 2 2 5 9 16 28 34 32 26 21 15 7 2 1 2 2 1 1 2 1 1 1 1 0 0 0 0 0 0 0 0 0 0 0 0 1 1 1 0
0 0 0 0 0 0 0 0 1 1 2 4 8 14 22 31 37 36 32 28 21 13 8 5 4 3 3 3 2 1 1 1 0 0 0 0 0 0 0 0 0 0 0 0 0 1 1 1 0
0 0 0 0 0 0 0 0 0 1 2 3 8 16 23 28 31 31 29 26 23 19 16 11 8 6 5 4 3 2 2 1 0 0 0 0 0 0 0 0 0 0 0 0 0 0 0 0 0
0 0 0 0 0 0 0 0 0 0 1 2 4 12 22 26 25 26 27 25 24 24 22 18 14 13 10 7 5 3 1 1 0 0 0 0 0 0 0 0 0 0 0 0 0 0 0 0 0
0 0 0 0 0 0 0 0 0 0 0 0 3 11 22 26 25 27 30 30 28 29 29 25 20 17 15 10 6 2 1 0 0 0 0 0 0 0 0 0 0 0 0 0 0 0 0 0 0
0 0 0 0 0 0 0 0 0 0 1 1 5 11 20 26 27 29 33 34 32 34 35 31 24 19 15 11 7 3 2 1 0 0 0 0 0 0 0 0 0 0 0 0 0 0 0 0 0
0 0 0 0 0 0 0 0 0 1 1 3 7 12 19 26 29 31 35 38 36 34 35 33 26 19 14 9 7 5 3 1 0 0 0 0 0 0 0 0 0 0 0 0 0 0 0 0 0
0 0 0 0 0 0 0 0 0 1 1 3 6 10 16 23 26 29 35 38 35 33 33 31 25 17 12 8 6 6 4 2 0 0 0 0 0 0 0 0 0 0 0 0 0 0 0 0 0
0 0 0 0 0 0 0 0 0 0 1 2 3 6 10 14 17 22 29 33 32 30 31 29 22 15 10 7 6 5 4 2 0 0 0 0 0 0 0 0 0 0 0 0 0 0 0 0 0
0 0 0 0 0 0 0 0 0 0 0 1 2 4 6 8 10 14 20 24 24 24 26 23 17 11 9 7 4 3 2 1 0 0 0 0 0 0 0 0 0 0 0 0 0 0 0 0 0
0 0 0 0 0 0 0 0 0 0 0 0 2 5 7 8 9 11 13 15 15 16 17 14 10 6 5 4 2 1 1 0 0 0 0 0 0 0 0 0 0 0 0 0 0 0 0 0 0
0 0 0 0 0 0 0 0 0 0 0 0 1 4 6 8 9 9 9 9 10 10 10 7 5 3 1 1 1 1 0 0 0 0 0 0 0 0 0 0 0 0 0 0 0 0 0 0 0
0 0 0 0 0 0 0 0 0 0 0 0 0 2 5 8 9 8 7 6 8 7 5 2 2 2 1 0 1 1 0 0 0 0 0 0 0 0 0 0 0 0 0 0 0 0 0 0 0
0 0 0 0 0 0 0 0 0 0 0 0 0 0 3 6 8 8 6 4 4 4 2 0 1 1 0 0 0 0 0 0 0 0 0 0 0 0 0 0 0 0 0 0 0 0 0 0 0
0 0 0 0 0 0 0 0 0 0 0 0 0 0 1 3 5 7 5 2 1 1 0 0 0 0 0 0 0 0 0 0 0 0 0 0 0 0 0 0 0 0 0 0 0 0 0 0 0
0 0 0 0 0 0 0 0 0 0 0 0 0 0 0 1 3 5 4 2 0 0 0 0 0 0 0 0 0 0 0 0 0 0 0 0 0 0 0 0 0 0 0 0 0 0 0 0 0
0 0 0 0 0 0 0 0 0 0 0 0 0 0 0 0 2 5 5 3 1 1 1 1 1 0 0 0 0 0 0 0 0 0 0 0 0 0 0 0 0 0 0 0 0 0 0 0 0
0 0 0 0 0 0 0 0 0 0 0 0 0 0 0 0 2 4 5 3 2 4 4 2 1 0 0 0 1 1 0 0 0 0 0 0 0 0 0 0 0 0 0 0 0 0 0 0 0
0 0 0 0 0 0 0 0 0 0 0 0 0 0 0 0 0 2 3 3 3 5 5 3 1 1 1 1 1 1 1 1 1 0 0 0 0 0 0 0 0 0 0 0 0 0 0 0 0
0 0 0 0 0 0 0 0 0 0 0 0 0 0 0 0 0 0 1 1 2 4 6 5 4 3 2 2 2 2 2 2 2 1 1 1 0 0 0 0 0 0 0 0 0 0 0 0 0
0 0 0 0 0 0 0 0 0 0 0 0 0 0 0 0 0 0 0 0 2 4 6 6 5 4 4 4 5 5 5 5 5 5 4 3 1 0 0 0 0 0 0 0 0 0 0 0 0
0 0 0 0 0 0 0 0 0 0 0 0 0 0 0 0 0 0 0 1 2 4 6 6 6 6 5 7 8 8 7 7 8 8 7 5 2 1 0 0 0 0 0 0 0 0 0 0 0

GEFSSGP_con_probscp_078.txt.gz
Probability
0 0 0 0 0 0 0 0 0 0 0 0 0 2 5 9 10 7 6 15 26 24 14 11 8 3 0 0 0 0 0 0 0 0 0 0 0 0 0 0 0 0 0 0 0 0 0 0 0
0 0 0 0 0 0 0 0 0 0 0 1 2 3 6 10 11 10 11 20 24 18 11 9 7 4 1 0 0 0 0 0 0 0 0 0 0 0 0 0 0 0 0 0 0 0 0 0 0
0 0 0 0 0 0 0 0 0 0 1 3 5 6 9 11 11 11 16 20 18 11 7 7 8 6 3 0 0 0 0 0 0 0 0 0 0 0 0 0 0 0 0 0 0 0 0 0 0
0 0 0 0 0 0 0 0 0 1 2 5 8 11 13 13 10 10 13 14 13 9 5 6 10 9 3 0 0 0 0 0 0 0 0 0 0 0 0 0 0 0 0 0 0 0 0 0 0
0 0 0 0 0 0 0 0 1 3 6 9 11 16 20 17 10 7 7 10 12 10 5 7 11 9 3 0 0 0 0 0 0 0 0 0 0 0 0 0 0 0 0 0 0 0 0 0 0
0 0 0 0 0 0 0 0 1 4 8 9 11 19 25 20 10 6 6 9 13 12 8 7 10 8 3 0 0 0 0 0 0 0 0 0 0 0 0 0 0 0 0 0 0 0 0 0 0
0 0 0 0 0 0 0 0 1 4 5 6 9 20 30 26 15 9 9 11 16 20 15 8 6 5 2 0 0 0 0 0 0 0 0 0 0 0 0 0 0 0 0 0 0 0 0 0 0
0 0 0 0 0 0 0 0 1 2 2 4 8 21 35 34 22 14 13 15 23 28 21 9 4 2 1 0 0 0 0 0 0 0 0 0 0 0 0 0 0 0 0 0 0 0 0 0 0
0 0 0 0 0 0 0 0 0 0 1 6 15 29 40 39 28 20 19 25 33 35 28 17 10 5 1 0 0 0 0 0 0 0 0 0 0 0 0 0 0 0 0 0 0 0 0 0 0
0 0 0 0 0 0 0 0 0 0 3 12 28 41 45 40 32 26 26 33 40 42 37 30 21 11 6 5 4 2 1 1 0 0 0 0 0 0 0 1 0 0 0 0 0 0 0 0 0
0 0 0 0 0 0 0 0 0 1 6 20 38 49 47 40 33 29 29 35 46 52 48 42 34 26 21 16 9 5 4 3 2 1 1 1 0 0 0 1 0 0 0 0 0 0 0 0 0
0 0 0 0 0 0 0 0 0 2 8 21 39 50 48 39 33 32 35 44 56 64 62 56 53 51 45 32 18 9 7 5 3 2 2 2 1 0 1 1 0 0 0 0 0 0 0 0 0
0 0 0 0 0 0 0 1 1 4 8 17 31 44 46 40 36 38 46 58 68 72 72 73 72 69 62 50 31 18 12 9 5 3 3 3 2 1 1 1 0 0 0 0 0 0 0 0 0
0 0 0 0 0 0 0 1 2 7 13 17 24 36 42 42 43 47 55 66 72 73 74 77 76 71 63 54 40 26 16 10 6 5 4 3 2 1 1 0 0 0 0 0 0 0 0 0 0
0 0 0 0 0 0 0 2 7 14 21 22 22 29 38 45 50 55 60 65 69 72 72 70 68 65 57 48 37 25 15 10 7 5 4 3 2 1 1 1 1 1 0 0 0 0 0 0 0
0 0 0 0 0 0 1 5 13 22 25 22 22 27 37 46 52 56 60 63 67 70 69 63 60 59 53 45 34 23 15 10 6 4 3 3 2 2 2 2 1 1 0 0 0 0 0 0 0
0 0 0 0 0 0 1 6 16 23 23 20 22 29 36 43 46 50 56 59 61 63 62 60 56 52 47 40 32 22 15 9 5 4 3 3 2 1 1 1 1 0 0 0 0 0 0 0 0
0 0 0 0 0 0 1 5 13 19 20 21 25 30 34 37 39 43 48 50 52 53 53 52 49 43 37 30 24 17 11 7 5 4 3 1 1 0 0 0 0 0 0 0 0 0 0 0 0
0 0 0 0 0 0 1 5 11 15 17 21 25 30 33 34 35 39 42 43 44 45 44 42 37 32 26 21 17 11 7 5 4 3 1 0 0 0 0 0 0 0 0 0 0 0 0 0 0
0 0 0 0 0 0 1 5 11 14 14 17 22 29 33 34 35 37 39 39 38 39 37 33 29 23 19 16 13 9 5 4 3 1 0 0 0 0 0 0 0 0 0 0 0 0 0 0 0
0 0 0 0 0 0 0 4 11 14 13 12 16 24 30 32 33 34 33 31 29 30 28 26 24 20 16 13 10 7 5 4 2 1 0 0 0 0 0 0 0 0 0 0 0 0 0 0 0
0 0 0 0 0 0 0 3 9 13 11 10 14 20 25 28 31 30 28 24 21 20 20 21 20 18 14 11 8 6 4 3 2 1 0 0 0 0 0 0 0 0 0 0 0 0 0 0 0
0 0 0 1 1 0 0 1 5 8 8 10 13 18 22 24 26 25 23 20 16 13 12 14 15 15 13 10 8 5 3 3 2 1 0 0 0 0 0 0 0 0 0 0 0 0 0 0 0
0 0 0 3 4 3 0 0 1 3 5 7 10 14 17 17 18 19 18 16 12 9 8 10 12 12 10 8 6 4 3 2 2 1 1 1 0 0 0 0 0 0 0 0 0 0 0 0 0
0 0 0 3 6 4 1 0 0 1 2 4 7 10 11 10 11 13 13 11 9 8 9 11 12 11 7 4 4 3 2 2 2 2 2 1 0 0 0 0 0 0 0 0 0 0 0 0 0
0 0 0 1 2 2 1 0 0 0 1 1 3 6 7 6 7 9 10 9 8 9 11 13 14 11 6 3 2 3 2 1 1 1 1 0 0 0 1 0 0 0 0 0 0 0 0 0 0
0 0 0 0 0 0 0 1 0 0 0 0 1 3 4 4 4 6 7 7 7 9 12 14 15 13 9 5 3 3 2 1 0 0 0 0 0 1 1 1 0 0 0 0 0 0 0 0 0
0 0 0 0 0 0 0 0 0 0 1 0 0 1 2 3 3 4 4 4 5 8 13 16 16 15 12 8 6 4 4 3 1 0 1 2 2 3 3 2 0 0 0 0 0 0 0 1 1
0 0 0 0 0 0 0 0 0 0 0 0 0 0 1 2 2 4 6 6 5 7 13 17 17 16 13 11 9 7 7 7 6 4 6 8 9 9 8 5 2 0 0 0 1 1 1 2 2
0 0 0 0 0 0 0 0 0 0 0 1 1 1 0 1 3 7 11 12 8 7 11 16 17 15 13 12 10 9 10 11 11 10 11 14 15 14 12 8 4 1 0 1 2 2 1 2 3

GEFSSGP_con_probscp_084.txt.gz
Probability
0 0 0 0 0 0 0 0 0 1 3 6 10 11 9 5 2 1 2 5 10 13 11 12 14 9 4 1 0 0 0 0 0 0 0 0 0 0 0 0 0 0 0 0 0 0 0 0 0
0 0 0 0 0 0 0 0 1 2 4 9 13 14 12 8 4 3 3 7 14 16 15 17 17 13 6 1 0 0 0 0 0 0 0 0 0 0 0 0 0 0 0 0 0 0 0 0 0
0 0 0 0 0 0 0 1 3 5 8 14 19 19 15 11 7 6 6 10 17 19 19 22 23 18 8 1 0 0 0 0 0 0 0 0 0 0 0 0 0 0 0 0 0 0 0 0 0
0 0 0 0 0 0 0 2 5 7 11 19 25 24 19 14 12 14 14 15 19 22 22 24 28 23 11 2 0 0 0 0 0 0 0 0 0 0 0 0 0 0 0 0 0 0 0 0 0
0 0 0 0 0 0 0 2 6 11 17 25 32 30 23 18 22 26 23 21 24 28 27 28 30 26 15 5 1 0 0 0 0 0 0 0 0 0 0 0 0 0 0 0 0 0 0 0 0
0 0 0 0 0 0 1 2 8 17 25 32 37 34 25 24 31 31 26 24 29 34 33 31 28 22 14 8 2 0 0 0 0 0 0 0 0 0 0 0 0 0 0 0 0 0 0 0 0
0 0 0 0 0 0 1 3 9 19 28 34 37 35 29 28 32 32 28 27 32 37 37 32 24 17 12 7 3 1 0 0 0 0 0 0 0 0 0 0 0 0 0 0 0 0 0 0 0
0 0 0 0 0 0 1 3 8 15 24 32 35 35 33 33 35 36 32 29 31 35 36 32 25 18 12 6 3 1 0 0 0 0 0 0 0 0 0 0 0 0 0 0 0 0 0 0 0
0 0 0 0 0 0 0 2 7 16 28 36 40 42 42 44 46 45 39 31 27 27 29 29 25 19 12 7 3 0 0 0 0 0 0 0 0 0 0 0 0 0 0 0 0 0 0 0 0
0 0 0 0 0 0 0 3 10 24 36 44 49 52 53 54 55 53 46 37 27 23 22 22 20 16 12 9 5 2 0 0 0 0 0 0 0 0 0 0 0 0 0 0 0 0 0 0 0
0 0 0 0 0 0 0 4 14 26 35 43 51 55 55 54 54 53 50 44 34 27 21 15 11 11 10 10 8 3 0 0 0 0 0 0 0 0 0 0 0 0 0 0 0 0 0 0 0
0 0 0 0 0 0 1 5 13 21 27 38 50 53 52 51 49 49 48 46 40 33 24 14 8 8 8 9 7 3 0 0 0 0 0 0 0 0 0 0 0 0 0 0 0 0 0 0 0
0 0 0 0 0 1 3 7 12 18 28 43 55 57 54 51 48 46 46 45 42 36 28 20 13 9 7 7 5 2 0 0 0 0 0 0 0 0 0 0 0 0 0 0 0 0 0 0 0
0 0 0 0 0 1 3 6 12 21 35 51 60 61 57 52 47 44 43 43 44 41 35 28 19 11 9 7 4 1 0 0 0 0 0 0 0 0 0 0 0 0 0 0 0 0 0 0 0
0 0 0 0 0 0 1 3 9 21 37 52 60 61 57 51 44 38 38 41 44 43 39 31 22 15 13 12 8 3 1 0 0 0 0 0 0 0 0 0 0 0 0 0 0 0 0 0 0
0 0 0 0 0 0 0 2 8 18 31 43 52 55 52 46 37 32 35 41 42 40 35 29 23 20 18 16 12 6 2 1 1 1 2 1 0 0 0 0 0 0 0 0 0 0 0 0 0
0 0 0 0 0 0 1 3 7 14 22 31 40 46 46 39 32 30 33 37 37 33 29 26 23 20 19 16 12 7 3 2 2 2 2 1 0 0 0 0 0 0 0 0 0 0 0 0 0
0 0 0 0 0 1 3 5 7 11 15 20 29 38 40 35 30 30 31 31 29 26 24 22 21 18 15 13 10 5 2 1 1 2 1 1 0 0 0 0 0 0 0 0 0 0 0 0 0
0 0 0 0 1 2 5 6 7 9 10 13 21 31 35 32 28 27 26 24 23 21 19 18 18 16 13 10 7 3 1 0 0 0 0 0 0 0 0 0 0 0 0 0 0 0 0 0 0
0 0 0 0 1 2 4 5 5 6 6 9 14 23 29 30 26 22 21 20 20 17 14 13 14 13 11 8 4 1 0 0 0 0 0 0 0 0 0 0 0 0 0 0 0 0 0 0 0
0 0 0 0 1 1 1 2 3 4 4 5 8 16 24 27 24 19 18 18 17 14 10 9 10 11 9 6 2 0 0 0 0 0 0 0 0 0 0 0 0 0 0 0 0 0 0 0 0
0 0 0 0 0 0 0 1 2 2 2 2 4 10 17 22 21 18 18 18 15 11 9 7 7 7 6 4 1 0 0 0 0 0 0 0 0 0 0 0 0 0 0 0 0 0 0 0 0
0 0 0 0 0 0 0 0 1 1 0 0 2 6 13 17 17 16 18 17 13 10 7 5 4 4 4 3 1 0 0 0 0 0 0 0 0 0 0 0 0 0 0 0 0 0 0 0 0
0 0 0 0 0 0 0 0 0 0 0 0 1 4 10 13 13 12 13 12 10 8 5 3 3 3 3 2 1 0 0 0 0 0 0 0 0 0 0 0 0 0 0 0 0 0 0 0 0
0 0 0 0 0 0 0 0 0 0 0 0 2 3 5 7 8 9 9 8 7 6 4 2 1 1 2 1 0 0 0 0 0 0 0 0 0 0 0 0 0 0 0 0 0 0 0 0 0
0 0 0 0 0 0 0 0 0 0 0 0 1 2 2 3 5 7 7 6 6 7 5 2 1 1 1 1 0 0 0 0 0 0 0 0 0 0 0 0 0 0 0 0 0 0 0 0 0
0 0 0 0 0 0 0 0 0 0 0 1 1 1 1 2 4 6 6 5 6 8 7 4 3 3 2 1 0 0 0 0 0 0 0 0 0 0 0 0 0 0 0 0 0 0 0 0 0
0 0 0 0 0 0 0 0 0 0 1 1 1 1 1 1 3 5 4 5 7 8 7 5 4 5 4 2 0 0 0 0 0 0 0 0 0 0 0 0 0 0 0 0 0 0 0 0 0
0 0 0 0 0 0 0 0 0 0 1 2 1 1 1 1 3 4 4 5 6 8 8 7 6 6 5 3 1 0 0 0 0 0 0 0 0 0 0 0 0 0 0 0 0 0 0 0 0
0 0 0 0 0 0 0 0 0 0 1 2 2 1 1 1 2 4 5 5 5 7 10 10 7 6 5 3 2 1 0 0 0 0 0 0 0 0 0 0 0 0 0 0 0 0 0 0 0

GEFSSGP_con_probscp_090.txt.gz
Probability
0 0 0 0 0 0 0 0 0 0 0 0 1 1 1 0 0 0 1 3 6 8 6 7 9 8 3 1 1 0 0 0 0 0 0 0 0 0 0 0 0 0 0 0 0 0 0 0 0
0 0 0 0 0 0 0 0 0 0 0 1 3 3 2 1 1 1 2 5 9 9 7 9 12 10 6 3 1 0 0 0 0 0 0 0 0 0 0 0 0 0 0 0 0 0 0 0 0
0 0 0 0 0 0 0 0 0 1 2 3 5 5 4 3 2 2 4 9 13 11 9 12 16 14 9 6 2 0 0 0 0 0 0 0 0 0 0 0 0 0 0 0 0 0 0 0 0
0 0 0 0 0 0 0 0 1 2 4 6 7 5 4 3 3 5 9 17 20 16 12 16 21 18 13 8 4 1 0 0 0 0 0 0 0 0 0 0 0 0 0 0 0 0 0 0 0
0 0 0 0 0 0 0 0 1 3 7 10 11 8 5 6 8 12 18 24 27 25 20 22 25 23 16 10 5 1 0 0 0 0 0 0 0 0 0 0 0 0 0 0 0 0 0 0 0
0 0 0 0 0 0 0 1 3 7 12 16 17 13 10 10 16 22 26 28 32 34 31 30 31 27 18 10 4 1 0 0 0 0 0 0 0 0 0 0 0 0 0 0 0 0 0 0 0
0 0 0 0 0 0 0 1 5 12 18 23 25 19 13 16 25 34 34 33 40 44 42 39 35 29 20 11 4 1 0 0 0 0 0 0 0 0 0 0 0 0 0 0 0 0 0 0 0
0 0 0 0 0 0 0 0 5 13 24 31 30 22 18 27 41 47 45 43 47 49 46 42 37 30 22 12 4 0 0 0 0 0 0 0 0 0 0 0 0 0 0 0 0 0 0 0 0
0 0 0 0 0 1 1 1 5 16 30 38 34 27 31 45 56 58 55 52 50 46 42 41 39 33 24 13 4 1 1 0 0 0 0 0 0 0 0 0 0 0 0 0 0 0 0 0 0
0 0 0 0 1 2 3 4 10 22 33 40 40 41 50 60 61 59 55 51 48 45 39 38 38 36 28 15 6 4 3 1 0 0 0 0 0 0 0 0 0 0 0 0 0 0 0 0 0
0 0 0 0 1 2 4 7 16 25 30 38 49 58 66 66 58 51 44 39 40 41 38 36 37 38 31 19 10 5 3 1 0 0 0 0 0 0 0 0 0 0 0 0 0 0 0 0 0
0 0 0 0 1 2 5 8 14 19 23 36 55 68 72 67 55 43 32 27 28 30 32 34 37 36 30 22 14 9 4 1 0 0 0 0 0 0 0 0 0 0 0 0 0 0 0 0 0
0 0 0 0 0 2 5 7 9 13 22 40 59 69 70 64 52 39 29 23 21 21 25 30 32 30 24 19 15 11 6 2 0 0 0 0 0 0 0 0 0 0 0 0 0 0 0 0 0
0 0 0 0 1 2 5 6 7 14 31 52 63 65 63 58 50 39 30 24 20 19 21 24 24 22 18 15 12 9 6 2 0 0 0 0 0 0 0 0 0 0 0 0 0 0 0 0 0
0 0 0 0 1 2 4 4 7 19 41 59 63 59 55 50 45 38 32 26 21 19 19 19 17 15 12 10 8 6 4 2 0 0 0 0 0 0 0 0 0 0 0 0 0 0 0 0 0
0 0 0 0 0 1 1 2 6 21 45 58 56 51 46 39 35 32 30 25 19 17 17 17 14 10 7 6 5 4 4 2 0 0 0 0 0 0 0 0 0 0 0 0 0 0 0 0 0
0 0 0 0 0 0 0 1 4 16 35 45 44 40 34 28 23 23 25 22 15 14 15 15 11 8 5 3 3 3 3 2 1 0 0 0 0 0 0 0 0 0 0 0 0 0 0 0 0
0 0 0 0 0 0 0 0 1 8 18 26 29 29 25 21 17 17 18 17 14 13 13 12 9 6 5 3 2 3 3 2 1 0 0 0 0 0 0 0 0 0 0 0 0 0 0 0 0
0 0 0 0 0 0 0 0 0 2 7 13 17 18 16 16 17 16 15 14 13 12 10 9 8 6 6 5 4 3 2 1 1 0 0 0 0 0 0 0 0 0 0 0 0 0 0 0 0
0 0 0 0 0 0 0 1 0 1 3 7 9 9 10 12 15 16 14 12 11 10 9 9 8 8 8 7 5 3 1 0 0 0 0 0 0 0 0 0 0 0 0 0 0 0 0 0 0
0 0 0 0 0 0 0 0 0 0 1 3 4 5 6 8 11 12 12 11 10 9 10 10 9 9 9 8 5 2 0 0 0 0 0 0 0 0 0 0 0 0 0 0 0 0 0 0 0
0 0 0 0 0 0 0 0 0 0 0 1 1 3 3 4 5 6 8 10 10 10 11 12 11 9 7 6 3 1 0 0 0 0 0 0 0 0 0 0 0 0 0 0 0 0 0 0 0
0 0 0 0 0 0 0 0 0 0 0 0 1 2 2 1 1 2 4 7 8 9 10 10 9 6 4 3 1 0 0 0 0 0 0 0 0 0 0 0 0 0 0 0 0 0 0 0 0
0 0 0 0 0 0 0 0 0 0 0 0 1 1 1 0 1 1 2 4 5 6 6 6 5 4 3 2 1 0 0 0 0 0 0 0 0 0 0 0 0 0 0 0 0 0 0 0 0
0 0 0 0 0 0 0 0 0 0 0 0 0 0 0 0 0 0 1 2 3 4 3 2 1 2 1 1 0 0 0 0 0 0 0 0 0 0 0 0 0 0 0 0 0 0 0 0 0
0 0 0 0 0 0 0 0 0 0 0 0 0 0 0 0 0 0 1 2 3 4 4 2 0 0 0 0 0 0 0 0 0 0 0 0 0 0 0 0 0 0 0 0 0 0 0 0 0
0 0 0 0 0 0 0 0 0 0 0 0 0 0 0 0 0 0 1 2 4 5 5 2 0 0 0 0 0 0 0 0 0 0 0 0 0 0 0 0 0 0 0 0 0 0 0 0 0
0 0 0 0 0 0 0 0 0 0 0 0 0 0 0 0 0 0 0 1 3 5 4 2 0 0 0 0 0 0 0 0 0 0 0 0 0 0 0 0 0 0 0 0 0 0 0 0 0
0 0 0 0 0 0 0 0 0 0 0 0 0 0 0 0 0 0 0 0 1 3 3 1 0 0 0 0 0 1 1 0 0 0 0 0 0 0 0 0 0 0 0 0 0 0 0 0 0
0 0 0 0 0 0 0 0 0 0 0 0 0 0 0 0 0 0 0 0 1 3 3 1 0 0 0 0 1 1 1 0 0 0 0 0 0 0 0 0 0 0 0 0 0 0 0 0 0

GEFSSGP_con_probscp_096.txt.gz
Probability
0 0 0 0 0 0 0 0 0 0 0 0 0 0 0 0 0 0 0 0 3 8 8 4 1 0 0 0 0 1 1 1 0 0 0 0 0 0 0 0 0 0 0 0 0 0 0 0 0
0 0 0 0 0 0 0 0 0 0 0 0 0 0 0 0 0 0 0 0 3 8 10 7 3 1 0 0 0 0 0 0 0 0 0 0 0 0 0 0 0 0 0 0 0 0 0 0 0
0 0 0 0 0 0 0 0 0 0 0 0 0 0 0 1 1 1 1 1 3 7 11 11 8 4 2 1 0 0 0 0 0 0 0 0 0 0 0 0 0 0 0 0 0 0 0 0 0
0 0 0 0 0 0 0 0 0 0 0 0 0 0 1 2 2 3 3 3 4 7 10 13 13 9 5 2 1 0 0 0 0 0 0 0 0 0 0 0 0 0 0 0 0 0 0 0 0
0 0 0 0 0 0 0 0 0 0 0 0 0 1 2 4 4 4 5 5 6 7 9 13 16 14 10 5 2 1 0 0 0 0 0 0 0 0 0 0 0 0 0 0 0 0 0 0 0
0 0 0 0 0 0 0 0 0 0 0 0 0 1 4 6 7 7 6 5 6 6 9 14 15 15 13 8 5 3 1 0 0 0 0 0 0 0 0 0 0 0 0 0 0 0 0 0 0
0 0 0 0 0 0 0 0 0 0 0 1 2 2 8 13 15 13 9 6 6 5 9 13 13 11 11 9 6 4 2 1 0 0 0 0 0 0 0 0 0 0 0 0 0 0 0 0 0
0 0 0 0 0 0 0 0 0 0 1 4 4 5 15 28 29 23 17 14 13 12 11 13 13 10 8 8 7 4 3 2 1 0 0 0 0 0 0 0 0 0 0 0 0 0 0 0 0
0 0 0 0 0 0 0 0 0 0 2 6 9 15 29 44 45 37 30 26 27 24 19 16 16 14 10 8 7 4 2 2 1 0 0 0 0 0 0 0 0 0 0 0 0 0 0 0 0
0 0 0 0 0 0 0 0 0 1 3 8 17 29 46 57 56 48 40 37 39 36 29 23 20 19 16 13 11 7 3 2 1 0 0 0 0 0 0 0 0 0 0 0 0 0 0 0 0
0 0 0 0 0 0 0 0 0 1 4 9 21 40 57 65 61 52 44 41 43 42 36 30 27 25 24 22 18 13 8 5 3 1 0 0 0 0 0 0 0 0 0 0 0 0 0 0 0
0 0 0 0 0 0 0 1 1 3 6 10 21 42 61 67 63 53 44 38 38 39 38 36 36 36 36 32 26 19 12 8 5 3 1 0 0 0 0 0 0 0 0 0 0 0 0 0 0
0 0 0 0 0 0 0 1 3 5 9 14 25 44 59 63 60 54 47 38 34 36 39 40 42 44 46 43 33 23 17 11 8 5 2 0 0 0 0 0 0 0 0 0 0 0 0 0 0
0 0 0 0 0 0 0 2 4 7 13 20 31 44 54 57 57 55 51 44 38 37 39 40 42 45 49 46 37 27 20 16 10 5 2 0 0 0 0 0 0 0 0 0 0 0 0 0 0
0 0 0 0 0 0 0 2 6 11 17 24 32 42 50 54 55 53 50 46 41 38 37 35 37 41 45 44 38 31 24 16 10 6 2 0 0 0 0 0 0 0 0 0 0 0 0 0 0
0 0 0 0 0 0 0 3 9 14 18 24 32 42 50 52 49 46 43 40 37 35 32 31 32 36 40 43 40 35 27 18 12 7 3 0 0 0 0 0 0 0 0 0 0 0 0 0 0
0 0 0 0 0 0 0 3 10 13 14 20 32 42 47 44 39 37 38 34 31 29 27 26 30 33 37 43 44 38 32 25 16 10 5 1 0 0 0 0 0 0 0 0 0 0 0 0 0
0 0 0 0 0 0 0 2 8 11 10 13 25 35 37 33 29 29 31 28 24 22 21 23 29 32 36 43 44 38 33 27 19 11 6 2 0 0 0 0 0 0 0 0 0 0 0 0 0
0 0 0 0 0 0 0 1 5 9 7 8 16 24 25 23 21 22 23 22 19 17 16 18 24 29 33 38 40 36 31 26 19 11 6 3 0 0 0 0 0 0 0 0 0 0 0 0 0
0 0 0 0 0 0 0 1 3 6 5 4 8 12 14 15 17 18 19 17 15 15 14 14 17 22 27 31 34 34 30 24 17 12 8 5 2 0 0 0 0 0 0 0 0 0 0 0 0
0 0 0 0 0 0 0 1 2 3 2 2 3 3 6 11 15 17 15 12 11 12 12 11 12 16 20 25 28 27 25 21 16 12 9 7 3 1 0 0 0 0 0 0 0 0 0 0 0
0 0 0 0 0 0 0 1 1 2 3 3 1 1 3 8 11 13 11 7 6 7 9 11 13 16 18 21 22 20 17 15 13 11 10 7 4 1 0 0 0 0 0 0 0 0 0 0 0
0 0 0 0 0 0 0 0 1 2 3 4 2 1 2 4 6 7 6 4 2 3 6 11 16 18 18 18 18 15 13 12 11 10 8 6 4 1 0 0 0 0 0 0 0 0 0 0 0
0 0 0 0 0 0 0 0 0 1 2 2 2 1 0 1 2 2 3 2 1 1 5 10 16 18 16 14 14 13 11 9 9 7 5 4 3 1 0 0 0 0 0 0 0 0 0 0 0
0 0 0 0 0 0 0 0 0 0 0 0 0 0 0 0 0 2 3 2 2 2 3 8 14 16 14 13 13 12 10 8 6 4 3 3 2 1 0 0 0 0 0 0 0 0 0 0 0
0 0 0 0 0 0 0 0 0 0 0 0 0 0 0 0 0 1 2 3 3 2 3 6 11 13 13 13 12 11 10 8 5 3 1 2 2 1 0 0 0 0 0 0 0 0 0 0 0
0 0 0 0 0 0 0 0 0 0 0 0 0 0 0 0 0 0 1 3 3 2 2 5 8 9 11 12 11 10 9 8 4 1 0 1 1 0 0 0 0 0 0 0 0 0 0 0 0
0 0 0 0 0 0 0 0 0 0 0 0 0 0 0 1 2 1 1 2 1 1 1 3 5 7 8 9 9 9 8 6 4 2 1 1 1 1 1 0 0 0 0 0 0 0 0 0 0
0 0 0 0 0 0 0 0 0 0 0 0 0 1 0 1 3 3 1 0 0 0 0 1 2 4 5 5 7 9 8 6 5 5 3 2 2 2 2 1 0 0 0 0 0 0 0 0 0
0 0 0 0 0 0 0 0 0 0 0 0 0 1 0 2 4 3 1 0 0 0 0 0 1 3 3 3 4 8 9 7 7 7 4 2 3 3 2 1 0 0 0 0 0 0 0 0 0